<?xml version="1.0" encoding="UTF-8" ?>
<gpx version="1.1" xmlns:xsi="http://www.w3.org/2001/XMLSchema-instance" 
    xmlns="http://www.topografix.com/GPX/1/1"
    xsi:schemaLocation="http://www.topografix.com/GPX/1/1 http://www.topografix.com/GPX/1/1/gpx.xsd" 
    creator="Openrunner - https://www.openrunner.com" >	<trk>
	                   <name>TDJ 26 / 16K-22766515</name>
						<trkseg>
					<trkpt lat="49.870490" lon="4.893290">
						<ele>176</ele>
						<time>2025-10-27T19:08:57Z</time>
					</trkpt>
					<trkpt lat="49.870450" lon="4.893220">
						<ele>177</ele>
						<time>2025-10-27T19:09:00Z</time>
					</trkpt>
					<trkpt lat="49.870240" lon="4.893170">
						<ele>178</ele>
						<time>2025-10-27T19:09:11Z</time>
					</trkpt>
					<trkpt lat="49.870160" lon="4.893160">
						<ele>177</ele>
						<time>2025-10-27T19:09:15Z</time>
					</trkpt>
					<trkpt lat="49.869930" lon="4.893140">
						<ele>177</ele>
						<time>2025-10-27T19:09:26Z</time>
					</trkpt>
					<trkpt lat="49.869690" lon="4.893130">
						<ele>177</ele>
						<time>2025-10-27T19:09:38Z</time>
					</trkpt>
					<trkpt lat="49.869410" lon="4.893130">
						<ele>177</ele>
						<time>2025-10-27T19:09:52Z</time>
					</trkpt>
					<trkpt lat="49.869260" lon="4.893120">
						<ele>177</ele>
						<time>2025-10-27T19:10:00Z</time>
					</trkpt>
					<trkpt lat="49.869150" lon="4.893110">
						<ele>177</ele>
						<time>2025-10-27T19:10:05Z</time>
					</trkpt>
					<trkpt lat="49.869180" lon="4.894400">
						<ele>175</ele>
						<time>2025-10-27T19:10:47Z</time>
					</trkpt>
					<trkpt lat="49.869170" lon="4.894580">
						<ele>175</ele>
						<time>2025-10-27T19:10:53Z</time>
					</trkpt>
					<trkpt lat="49.869140" lon="4.894790">
						<ele>176</ele>
						<time>2025-10-27T19:11:00Z</time>
					</trkpt>
					<trkpt lat="49.869120" lon="4.894410">
						<ele>175</ele>
						<time>2025-10-27T19:11:12Z</time>
					</trkpt>
					<trkpt lat="49.869120" lon="4.893240">
						<ele>176</ele>
						<time>2025-10-27T19:11:50Z</time>
					</trkpt>
					<trkpt lat="49.869040" lon="4.892560">
						<ele>184</ele>
						<time>2025-10-27T19:12:12Z</time>
					</trkpt>
					<trkpt lat="49.868950" lon="4.891870">
						<ele>208</ele>
						<time>2025-10-27T19:12:35Z</time>
					</trkpt>
					<trkpt lat="49.868560" lon="4.888810">
						<ele>195</ele>
						<time>2025-10-27T19:14:15Z</time>
					</trkpt>
					<trkpt lat="49.868410" lon="4.887530">
						<ele>175</ele>
						<time>2025-10-27T19:14:57Z</time>
					</trkpt>
					<trkpt lat="49.868290" lon="4.886520">
						<ele>171</ele>
						<time>2025-10-27T19:15:30Z</time>
					</trkpt>
					<trkpt lat="49.868250" lon="4.886460">
						<ele>171</ele>
						<time>2025-10-27T19:15:33Z</time>
					</trkpt>
					<trkpt lat="49.868190" lon="4.886400">
						<ele>171</ele>
						<time>2025-10-27T19:15:37Z</time>
					</trkpt>
					<trkpt lat="49.868170" lon="4.886340">
						<ele>170</ele>
						<time>2025-10-27T19:15:39Z</time>
					</trkpt>
					<trkpt lat="49.868150" lon="4.886250">
						<ele>170</ele>
						<time>2025-10-27T19:15:42Z</time>
					</trkpt>
					<trkpt lat="49.868120" lon="4.886260">
						<ele>170</ele>
						<time>2025-10-27T19:15:44Z</time>
					</trkpt>
					<trkpt lat="49.867850" lon="4.886320">
						<ele>170</ele>
						<time>2025-10-27T19:15:57Z</time>
					</trkpt>
					<trkpt lat="49.867310" lon="4.886410">
						<ele>170</ele>
						<time>2025-10-27T19:16:24Z</time>
					</trkpt>
					<trkpt lat="49.866740" lon="4.886530">
						<ele>170</ele>
						<time>2025-10-27T19:16:53Z</time>
					</trkpt>
					<trkpt lat="49.866310" lon="4.886550">
						<ele>170</ele>
						<time>2025-10-27T19:17:15Z</time>
					</trkpt>
					<trkpt lat="49.866020" lon="4.886480">
						<ele>169</ele>
						<time>2025-10-27T19:17:29Z</time>
					</trkpt>
					<trkpt lat="49.866020" lon="4.886530">
						<ele>169</ele>
						<time>2025-10-27T19:17:31Z</time>
					</trkpt>
					<trkpt lat="49.865960" lon="4.887140">
						<ele>170</ele>
						<time>2025-10-27T19:17:51Z</time>
					</trkpt>
					<trkpt lat="49.865890" lon="4.887760">
						<ele>173</ele>
						<time>2025-10-27T19:18:11Z</time>
					</trkpt>
					<trkpt lat="49.865880" lon="4.887810">
						<ele>173</ele>
						<time>2025-10-27T19:18:13Z</time>
					</trkpt>
					<trkpt lat="49.865840" lon="4.887840">
						<ele>173</ele>
						<time>2025-10-27T19:18:15Z</time>
					</trkpt>
					<trkpt lat="49.865810" lon="4.887850">
						<ele>174</ele>
						<time>2025-10-27T19:18:17Z</time>
					</trkpt>
					<trkpt lat="49.865350" lon="4.887820">
						<ele>176</ele>
						<time>2025-10-27T19:18:40Z</time>
					</trkpt>
					<trkpt lat="49.865310" lon="4.887870">
						<ele>177</ele>
						<time>2025-10-27T19:18:42Z</time>
					</trkpt>
					<trkpt lat="49.865100" lon="4.887740">
						<ele>176</ele>
						<time>2025-10-27T19:18:54Z</time>
					</trkpt>
					<trkpt lat="49.864770" lon="4.887600">
						<ele>178</ele>
						<time>2025-10-27T19:19:11Z</time>
					</trkpt>
					<trkpt lat="49.864820" lon="4.887720">
						<ele>180</ele>
						<time>2025-10-27T19:19:15Z</time>
					</trkpt>
					<trkpt lat="49.865290" lon="4.888400">
						<ele>186</ele>
						<time>2025-10-27T19:19:47Z</time>
					</trkpt>
					<trkpt lat="49.865400" lon="4.888550">
						<ele>189</ele>
						<time>2025-10-27T19:19:55Z</time>
					</trkpt>
					<trkpt lat="49.865480" lon="4.888850">
						<ele>197</ele>
						<time>2025-10-27T19:20:05Z</time>
					</trkpt>
					<trkpt lat="49.865760" lon="4.889280">
						<ele>205</ele>
						<time>2025-10-27T19:20:25Z</time>
					</trkpt>
					<trkpt lat="49.865830" lon="4.889420">
						<ele>209</ele>
						<time>2025-10-27T19:20:31Z</time>
					</trkpt>
					<trkpt lat="49.865970" lon="4.889760">
						<ele>219</ele>
						<time>2025-10-27T19:20:44Z</time>
					</trkpt>
					<trkpt lat="49.866060" lon="4.889920">
						<ele>223</ele>
						<time>2025-10-27T19:20:51Z</time>
					</trkpt>
					<trkpt lat="49.866120" lon="4.890160">
						<ele>228</ele>
						<time>2025-10-27T19:20:59Z</time>
					</trkpt>
					<trkpt lat="49.866200" lon="4.890410">
						<ele>233</ele>
						<time>2025-10-27T19:21:08Z</time>
					</trkpt>
					<trkpt lat="49.866190" lon="4.890650">
						<ele>238</ele>
						<time>2025-10-27T19:21:16Z</time>
					</trkpt>
					<trkpt lat="49.866330" lon="4.890930">
						<ele>242</ele>
						<time>2025-10-27T19:21:27Z</time>
					</trkpt>
					<trkpt lat="49.866370" lon="4.891080">
						<ele>243</ele>
						<time>2025-10-27T19:21:32Z</time>
					</trkpt>
					<trkpt lat="49.866360" lon="4.891190">
						<ele>244</ele>
						<time>2025-10-27T19:21:36Z</time>
					</trkpt>
					<trkpt lat="49.866370" lon="4.891360">
						<ele>246</ele>
						<time>2025-10-27T19:21:41Z</time>
					</trkpt>
					<trkpt lat="49.866350" lon="4.891480">
						<ele>247</ele>
						<time>2025-10-27T19:21:45Z</time>
					</trkpt>
					<trkpt lat="49.866320" lon="4.891540">
						<ele>249</ele>
						<time>2025-10-27T19:21:48Z</time>
					</trkpt>
					<trkpt lat="49.866200" lon="4.891610">
						<ele>251</ele>
						<time>2025-10-27T19:21:54Z</time>
					</trkpt>
					<trkpt lat="49.865970" lon="4.891700">
						<ele>255</ele>
						<time>2025-10-27T19:22:06Z</time>
					</trkpt>
					<trkpt lat="49.865780" lon="4.891820">
						<ele>257</ele>
						<time>2025-10-27T19:22:16Z</time>
					</trkpt>
					<trkpt lat="49.865490" lon="4.891950">
						<ele>264</ele>
						<time>2025-10-27T19:22:31Z</time>
					</trkpt>
					<trkpt lat="49.865380" lon="4.891970">
						<ele>267</ele>
						<time>2025-10-27T19:22:37Z</time>
					</trkpt>
					<trkpt lat="49.865160" lon="4.891990">
						<ele>273</ele>
						<time>2025-10-27T19:22:48Z</time>
					</trkpt>
					<trkpt lat="49.864960" lon="4.891980">
						<ele>279</ele>
						<time>2025-10-27T19:22:58Z</time>
					</trkpt>
					<trkpt lat="49.864830" lon="4.892020">
						<ele>284</ele>
						<time>2025-10-27T19:23:05Z</time>
					</trkpt>
					<trkpt lat="49.864710" lon="4.892100">
						<ele>289</ele>
						<time>2025-10-27T19:23:11Z</time>
					</trkpt>
					<trkpt lat="49.864590" lon="4.892110">
						<ele>294</ele>
						<time>2025-10-27T19:23:17Z</time>
					</trkpt>
					<trkpt lat="49.864160" lon="4.892210">
						<ele>312</ele>
						<time>2025-10-27T19:23:39Z</time>
					</trkpt>
					<trkpt lat="49.864130" lon="4.892220">
						<ele>313</ele>
						<time>2025-10-27T19:23:41Z</time>
					</trkpt>
					<trkpt lat="49.864010" lon="4.892320">
						<ele>318</ele>
						<time>2025-10-27T19:23:47Z</time>
					</trkpt>
					<trkpt lat="49.863920" lon="4.892340">
						<ele>321</ele>
						<time>2025-10-27T19:23:52Z</time>
					</trkpt>
					<trkpt lat="49.863760" lon="4.892320">
						<ele>326</ele>
						<time>2025-10-27T19:24:00Z</time>
					</trkpt>
					<trkpt lat="49.863640" lon="4.892360">
						<ele>330</ele>
						<time>2025-10-27T19:24:06Z</time>
					</trkpt>
					<trkpt lat="49.863570" lon="4.892420">
						<ele>333</ele>
						<time>2025-10-27T19:24:10Z</time>
					</trkpt>
					<trkpt lat="49.863520" lon="4.892420">
						<ele>334</ele>
						<time>2025-10-27T19:24:13Z</time>
					</trkpt>
					<trkpt lat="49.863470" lon="4.892400">
						<ele>336</ele>
						<time>2025-10-27T19:24:15Z</time>
					</trkpt>
					<trkpt lat="49.863420" lon="4.892360">
						<ele>337</ele>
						<time>2025-10-27T19:24:18Z</time>
					</trkpt>
					<trkpt lat="49.863360" lon="4.892340">
						<ele>339</ele>
						<time>2025-10-27T19:24:21Z</time>
					</trkpt>
					<trkpt lat="49.863130" lon="4.892490">
						<ele>344</ele>
						<time>2025-10-27T19:24:34Z</time>
					</trkpt>
					<trkpt lat="49.863160" lon="4.892580">
						<ele>344</ele>
						<time>2025-10-27T19:24:37Z</time>
					</trkpt>
					<trkpt lat="49.863150" lon="4.892730">
						<ele>344</ele>
						<time>2025-10-27T19:24:42Z</time>
					</trkpt>
					<trkpt lat="49.863130" lon="4.892790">
						<ele>345</ele>
						<time>2025-10-27T19:24:44Z</time>
					</trkpt>
					<trkpt lat="49.863090" lon="4.892920">
						<ele>345</ele>
						<time>2025-10-27T19:24:48Z</time>
					</trkpt>
					<trkpt lat="49.863050" lon="4.893000">
						<ele>346</ele>
						<time>2025-10-27T19:24:52Z</time>
					</trkpt>
					<trkpt lat="49.862990" lon="4.893020">
						<ele>347</ele>
						<time>2025-10-27T19:24:55Z</time>
					</trkpt>
					<trkpt lat="49.862910" lon="4.893060">
						<ele>348</ele>
						<time>2025-10-27T19:24:59Z</time>
					</trkpt>
					<trkpt lat="49.862840" lon="4.893040">
						<ele>350</ele>
						<time>2025-10-27T19:25:03Z</time>
					</trkpt>
					<trkpt lat="49.862840" lon="4.893580">
						<ele>348</ele>
						<time>2025-10-27T19:25:20Z</time>
					</trkpt>
					<trkpt lat="49.862830" lon="4.893770">
						<ele>347</ele>
						<time>2025-10-27T19:25:26Z</time>
					</trkpt>
					<trkpt lat="49.862770" lon="4.893890">
						<ele>347</ele>
						<time>2025-10-27T19:25:31Z</time>
					</trkpt>
					<trkpt lat="49.862720" lon="4.894100">
						<ele>347</ele>
						<time>2025-10-27T19:25:38Z</time>
					</trkpt>
					<trkpt lat="49.862690" lon="4.894500">
						<ele>342</ele>
						<time>2025-10-27T19:25:51Z</time>
					</trkpt>
					<trkpt lat="49.862700" lon="4.894640">
						<ele>340</ele>
						<time>2025-10-27T19:25:56Z</time>
					</trkpt>
					<trkpt lat="49.862770" lon="4.895090">
						<ele>333</ele>
						<time>2025-10-27T19:26:11Z</time>
					</trkpt>
					<trkpt lat="49.862990" lon="4.895780">
						<ele>318</ele>
						<time>2025-10-27T19:26:36Z</time>
					</trkpt>
					<trkpt lat="49.863010" lon="4.895830">
						<ele>316</ele>
						<time>2025-10-27T19:26:37Z</time>
					</trkpt>
					<trkpt lat="49.863020" lon="4.896050">
						<ele>312</ele>
						<time>2025-10-27T19:26:45Z</time>
					</trkpt>
					<trkpt lat="49.863060" lon="4.896270">
						<ele>307</ele>
						<time>2025-10-27T19:26:52Z</time>
					</trkpt>
					<trkpt lat="49.863120" lon="4.896450">
						<ele>302</ele>
						<time>2025-10-27T19:26:58Z</time>
					</trkpt>
					<trkpt lat="49.863200" lon="4.896770">
						<ele>293</ele>
						<time>2025-10-27T19:27:10Z</time>
					</trkpt>
					<trkpt lat="49.863280" lon="4.896890">
						<ele>288</ele>
						<time>2025-10-27T19:27:15Z</time>
					</trkpt>
					<trkpt lat="49.863290" lon="4.896970">
						<ele>286</ele>
						<time>2025-10-27T19:27:18Z</time>
					</trkpt>
					<trkpt lat="49.863330" lon="4.897090">
						<ele>282</ele>
						<time>2025-10-27T19:27:22Z</time>
					</trkpt>
					<trkpt lat="49.863310" lon="4.897290">
						<ele>278</ele>
						<time>2025-10-27T19:27:29Z</time>
					</trkpt>
					<trkpt lat="49.863310" lon="4.897410">
						<ele>276</ele>
						<time>2025-10-27T19:27:33Z</time>
					</trkpt>
					<trkpt lat="49.863330" lon="4.897480">
						<ele>274</ele>
						<time>2025-10-27T19:27:35Z</time>
					</trkpt>
					<trkpt lat="49.863430" lon="4.897740">
						<ele>261</ele>
						<time>2025-10-27T19:27:45Z</time>
					</trkpt>
					<trkpt lat="49.863440" lon="4.897830">
						<ele>258</ele>
						<time>2025-10-27T19:27:48Z</time>
					</trkpt>
					<trkpt lat="49.863440" lon="4.897890">
						<ele>257</ele>
						<time>2025-10-27T19:27:50Z</time>
					</trkpt>
					<trkpt lat="49.863470" lon="4.897990">
						<ele>252</ele>
						<time>2025-10-27T19:27:53Z</time>
					</trkpt>
					<trkpt lat="49.863460" lon="4.898070">
						<ele>251</ele>
						<time>2025-10-27T19:27:56Z</time>
					</trkpt>
					<trkpt lat="49.863440" lon="4.898100">
						<ele>252</ele>
						<time>2025-10-27T19:27:57Z</time>
					</trkpt>
					<trkpt lat="49.863400" lon="4.898090">
						<ele>254</ele>
						<time>2025-10-27T19:27:59Z</time>
					</trkpt>
					<trkpt lat="49.863360" lon="4.898110">
						<ele>256</ele>
						<time>2025-10-27T19:28:01Z</time>
					</trkpt>
					<trkpt lat="49.863360" lon="4.898160">
						<ele>255</ele>
						<time>2025-10-27T19:28:03Z</time>
					</trkpt>
					<trkpt lat="49.863370" lon="4.898230">
						<ele>252</ele>
						<time>2025-10-27T19:28:05Z</time>
					</trkpt>
					<trkpt lat="49.863430" lon="4.898320">
						<ele>247</ele>
						<time>2025-10-27T19:28:09Z</time>
					</trkpt>
					<trkpt lat="49.863530" lon="4.898400">
						<ele>239</ele>
						<time>2025-10-27T19:28:15Z</time>
					</trkpt>
					<trkpt lat="49.863540" lon="4.898430">
						<ele>238</ele>
						<time>2025-10-27T19:28:16Z</time>
					</trkpt>
					<trkpt lat="49.863520" lon="4.898490">
						<ele>238</ele>
						<time>2025-10-27T19:28:18Z</time>
					</trkpt>
					<trkpt lat="49.863560" lon="4.898610">
						<ele>233</ele>
						<time>2025-10-27T19:28:23Z</time>
					</trkpt>
					<trkpt lat="49.863570" lon="4.898700">
						<ele>231</ele>
						<time>2025-10-27T19:28:26Z</time>
					</trkpt>
					<trkpt lat="49.863640" lon="4.898910">
						<ele>223</ele>
						<time>2025-10-27T19:28:33Z</time>
					</trkpt>
					<trkpt lat="49.863690" lon="4.899160">
						<ele>216</ele>
						<time>2025-10-27T19:28:42Z</time>
					</trkpt>
					<trkpt lat="49.863670" lon="4.899250">
						<ele>215</ele>
						<time>2025-10-27T19:28:45Z</time>
					</trkpt>
					<trkpt lat="49.863670" lon="4.899380">
						<ele>212</ele>
						<time>2025-10-27T19:28:49Z</time>
					</trkpt>
					<trkpt lat="49.863640" lon="4.899400">
						<ele>213</ele>
						<time>2025-10-27T19:28:51Z</time>
					</trkpt>
					<trkpt lat="49.863610" lon="4.899400">
						<ele>214</ele>
						<time>2025-10-27T19:28:52Z</time>
					</trkpt>
					<trkpt lat="49.863560" lon="4.899360">
						<ele>216</ele>
						<time>2025-10-27T19:28:55Z</time>
					</trkpt>
					<trkpt lat="49.863500" lon="4.899300">
						<ele>220</ele>
						<time>2025-10-27T19:28:59Z</time>
					</trkpt>
					<trkpt lat="49.863450" lon="4.899300">
						<ele>222</ele>
						<time>2025-10-27T19:29:01Z</time>
					</trkpt>
					<trkpt lat="49.863370" lon="4.899290">
						<ele>225</ele>
						<time>2025-10-27T19:29:05Z</time>
					</trkpt>
					<trkpt lat="49.863280" lon="4.899380">
						<ele>225</ele>
						<time>2025-10-27T19:29:10Z</time>
					</trkpt>
					<trkpt lat="49.863210" lon="4.899490">
						<ele>223</ele>
						<time>2025-10-27T19:29:15Z</time>
					</trkpt>
					<trkpt lat="49.863110" lon="4.899610">
						<ele>222</ele>
						<time>2025-10-27T19:29:22Z</time>
					</trkpt>
					<trkpt lat="49.863010" lon="4.899670">
						<ele>223</ele>
						<time>2025-10-27T19:29:27Z</time>
					</trkpt>
					<trkpt lat="49.862770" lon="4.899780">
						<ele>225</ele>
						<time>2025-10-27T19:29:40Z</time>
					</trkpt>
					<trkpt lat="49.862570" lon="4.899900">
						<ele>226</ele>
						<time>2025-10-27T19:29:50Z</time>
					</trkpt>
					<trkpt lat="49.862240" lon="4.900060">
						<ele>227</ele>
						<time>2025-10-27T19:30:08Z</time>
					</trkpt>
					<trkpt lat="49.862050" lon="4.900230">
						<ele>224</ele>
						<time>2025-10-27T19:30:19Z</time>
					</trkpt>
					<trkpt lat="49.861820" lon="4.900350">
						<ele>224</ele>
						<time>2025-10-27T19:30:31Z</time>
					</trkpt>
					<trkpt lat="49.861680" lon="4.900400">
						<ele>224</ele>
						<time>2025-10-27T19:30:38Z</time>
					</trkpt>
					<trkpt lat="49.861500" lon="4.900510">
						<ele>225</ele>
						<time>2025-10-27T19:30:48Z</time>
					</trkpt>
					<trkpt lat="49.861390" lon="4.900640">
						<ele>224</ele>
						<time>2025-10-27T19:30:55Z</time>
					</trkpt>
					<trkpt lat="49.860960" lon="4.900620">
						<ele>235</ele>
						<time>2025-10-27T19:31:16Z</time>
					</trkpt>
					<trkpt lat="49.860800" lon="4.900680">
						<ele>237</ele>
						<time>2025-10-27T19:31:24Z</time>
					</trkpt>
					<trkpt lat="49.860450" lon="4.900810">
						<ele>239</ele>
						<time>2025-10-27T19:31:42Z</time>
					</trkpt>
					<trkpt lat="49.860090" lon="4.900910">
						<ele>243</ele>
						<time>2025-10-27T19:32:01Z</time>
					</trkpt>
					<trkpt lat="49.860040" lon="4.900950">
						<ele>244</ele>
						<time>2025-10-27T19:32:03Z</time>
					</trkpt>
					<trkpt lat="49.859830" lon="4.901020">
						<ele>246</ele>
						<time>2025-10-27T19:32:14Z</time>
					</trkpt>
					<trkpt lat="49.859550" lon="4.901160">
						<ele>247</ele>
						<time>2025-10-27T19:32:29Z</time>
					</trkpt>
					<trkpt lat="49.859360" lon="4.901230">
						<ele>247</ele>
						<time>2025-10-27T19:32:39Z</time>
					</trkpt>
					<trkpt lat="49.859180" lon="4.901200">
						<ele>250</ele>
						<time>2025-10-27T19:32:48Z</time>
					</trkpt>
					<trkpt lat="49.859000" lon="4.901150">
						<ele>254</ele>
						<time>2025-10-27T19:32:57Z</time>
					</trkpt>
					<trkpt lat="49.858790" lon="4.901040">
						<ele>260</ele>
						<time>2025-10-27T19:33:08Z</time>
					</trkpt>
					<trkpt lat="49.858670" lon="4.900890">
						<ele>264</ele>
						<time>2025-10-27T19:33:16Z</time>
					</trkpt>
					<trkpt lat="49.858610" lon="4.900750">
						<ele>268</ele>
						<time>2025-10-27T19:33:21Z</time>
					</trkpt>
					<trkpt lat="49.858530" lon="4.900610">
						<ele>271</ele>
						<time>2025-10-27T19:33:27Z</time>
					</trkpt>
					<trkpt lat="49.858420" lon="4.900480">
						<ele>274</ele>
						<time>2025-10-27T19:33:34Z</time>
					</trkpt>
					<trkpt lat="49.858190" lon="4.900270">
						<ele>282</ele>
						<time>2025-10-27T19:33:47Z</time>
					</trkpt>
					<trkpt lat="49.858070" lon="4.900240">
						<ele>286</ele>
						<time>2025-10-27T19:33:54Z</time>
					</trkpt>
					<trkpt lat="49.857970" lon="4.900180">
						<ele>289</ele>
						<time>2025-10-27T19:33:59Z</time>
					</trkpt>
					<trkpt lat="49.857930" lon="4.900140">
						<ele>291</ele>
						<time>2025-10-27T19:34:01Z</time>
					</trkpt>
					<trkpt lat="49.857560" lon="4.899780">
						<ele>305</ele>
						<time>2025-10-27T19:34:23Z</time>
					</trkpt>
					<trkpt lat="49.857530" lon="4.899640">
						<ele>308</ele>
						<time>2025-10-27T19:34:28Z</time>
					</trkpt>
					<trkpt lat="49.857520" lon="4.899610">
						<ele>308</ele>
						<time>2025-10-27T19:34:29Z</time>
					</trkpt>
					<trkpt lat="49.857390" lon="4.899540">
						<ele>312</ele>
						<time>2025-10-27T19:34:36Z</time>
					</trkpt>
					<trkpt lat="49.857450" lon="4.900040">
						<ele>304</ele>
						<time>2025-10-27T19:34:52Z</time>
					</trkpt>
					<trkpt lat="49.857540" lon="4.900330">
						<ele>298</ele>
						<time>2025-10-27T19:35:03Z</time>
					</trkpt>
					<trkpt lat="49.857580" lon="4.900500">
						<ele>295</ele>
						<time>2025-10-27T19:35:08Z</time>
					</trkpt>
					<trkpt lat="49.857630" lon="4.900600">
						<ele>292</ele>
						<time>2025-10-27T19:35:13Z</time>
					</trkpt>
					<trkpt lat="49.857720" lon="4.900860">
						<ele>286</ele>
						<time>2025-10-27T19:35:22Z</time>
					</trkpt>
					<trkpt lat="49.857750" lon="4.900970">
						<ele>284</ele>
						<time>2025-10-27T19:35:26Z</time>
					</trkpt>
					<trkpt lat="49.857730" lon="4.901090">
						<ele>282</ele>
						<time>2025-10-27T19:35:30Z</time>
					</trkpt>
					<trkpt lat="49.857690" lon="4.901160">
						<ele>282</ele>
						<time>2025-10-27T19:35:33Z</time>
					</trkpt>
					<trkpt lat="49.857650" lon="4.901190">
						<ele>283</ele>
						<time>2025-10-27T19:35:35Z</time>
					</trkpt>
					<trkpt lat="49.857600" lon="4.901200">
						<ele>284</ele>
						<time>2025-10-27T19:35:38Z</time>
					</trkpt>
					<trkpt lat="49.857390" lon="4.901270">
						<ele>287</ele>
						<time>2025-10-27T19:35:48Z</time>
					</trkpt>
					<trkpt lat="49.857130" lon="4.901260">
						<ele>291</ele>
						<time>2025-10-27T19:36:01Z</time>
					</trkpt>
					<trkpt lat="49.857070" lon="4.901300">
						<ele>291</ele>
						<time>2025-10-27T19:36:05Z</time>
					</trkpt>
					<trkpt lat="49.856940" lon="4.901430">
						<ele>291</ele>
						<time>2025-10-27T19:36:12Z</time>
					</trkpt>
					<trkpt lat="49.856800" lon="4.901530">
						<ele>290</ele>
						<time>2025-10-27T19:36:20Z</time>
					</trkpt>
					<trkpt lat="49.856660" lon="4.901720">
						<ele>289</ele>
						<time>2025-10-27T19:36:29Z</time>
					</trkpt>
					<trkpt lat="49.856640" lon="4.901870">
						<ele>289</ele>
						<time>2025-10-27T19:36:34Z</time>
					</trkpt>
					<trkpt lat="49.856660" lon="4.901970">
						<ele>289</ele>
						<time>2025-10-27T19:36:38Z</time>
					</trkpt>
					<trkpt lat="49.856760" lon="4.902250">
						<ele>286</ele>
						<time>2025-10-27T19:36:48Z</time>
					</trkpt>
					<trkpt lat="49.857130" lon="4.902570">
						<ele>274</ele>
						<time>2025-10-27T19:37:09Z</time>
					</trkpt>
					<trkpt lat="49.857250" lon="4.902680">
						<ele>271</ele>
						<time>2025-10-27T19:37:16Z</time>
					</trkpt>
					<trkpt lat="49.857440" lon="4.902700">
						<ele>265</ele>
						<time>2025-10-27T19:37:26Z</time>
					</trkpt>
					<trkpt lat="49.857680" lon="4.902790">
						<ele>260</ele>
						<time>2025-10-27T19:37:38Z</time>
					</trkpt>
					<trkpt lat="49.858140" lon="4.903060">
						<ele>251</ele>
						<time>2025-10-27T19:38:03Z</time>
					</trkpt>
					<trkpt lat="49.858370" lon="4.903080">
						<ele>247</ele>
						<time>2025-10-27T19:38:14Z</time>
					</trkpt>
					<trkpt lat="49.858380" lon="4.903070">
						<ele>246</ele>
						<time>2025-10-27T19:38:15Z</time>
					</trkpt>
					<trkpt lat="49.858450" lon="4.903020">
						<ele>245</ele>
						<time>2025-10-27T19:38:19Z</time>
					</trkpt>
					<trkpt lat="49.858620" lon="4.903000">
						<ele>242</ele>
						<time>2025-10-27T19:38:27Z</time>
					</trkpt>
					<trkpt lat="49.858830" lon="4.902880">
						<ele>237</ele>
						<time>2025-10-27T19:38:39Z</time>
					</trkpt>
					<trkpt lat="49.858890" lon="4.902920">
						<ele>236</ele>
						<time>2025-10-27T19:38:42Z</time>
					</trkpt>
					<trkpt lat="49.858660" lon="4.903180">
						<ele>241</ele>
						<time>2025-10-27T19:38:56Z</time>
					</trkpt>
					<trkpt lat="49.858510" lon="4.903240">
						<ele>244</ele>
						<time>2025-10-27T19:39:04Z</time>
					</trkpt>
					<trkpt lat="49.858230" lon="4.903410">
						<ele>249</ele>
						<time>2025-10-27T19:39:19Z</time>
					</trkpt>
					<trkpt lat="49.858200" lon="4.903410">
						<ele>250</ele>
						<time>2025-10-27T19:39:20Z</time>
					</trkpt>
					<trkpt lat="49.858110" lon="4.903400">
						<ele>252</ele>
						<time>2025-10-27T19:39:25Z</time>
					</trkpt>
					<trkpt lat="49.857740" lon="4.903210">
						<ele>258</ele>
						<time>2025-10-27T19:39:44Z</time>
					</trkpt>
					<trkpt lat="49.857490" lon="4.903230">
						<ele>263</ele>
						<time>2025-10-27T19:39:57Z</time>
					</trkpt>
					<trkpt lat="49.857350" lon="4.903410">
						<ele>269</ele>
						<time>2025-10-27T19:40:06Z</time>
					</trkpt>
					<trkpt lat="49.857350" lon="4.903900">
						<ele>273</ele>
						<time>2025-10-27T19:40:22Z</time>
					</trkpt>
					<trkpt lat="49.857350" lon="4.904050">
						<ele>274</ele>
						<time>2025-10-27T19:40:27Z</time>
					</trkpt>
					<trkpt lat="49.857290" lon="4.904240">
						<ele>275</ele>
						<time>2025-10-27T19:40:33Z</time>
					</trkpt>
					<trkpt lat="49.857180" lon="4.904360">
						<ele>277</ele>
						<time>2025-10-27T19:40:40Z</time>
					</trkpt>
					<trkpt lat="49.857100" lon="4.904370">
						<ele>278</ele>
						<time>2025-10-27T19:40:44Z</time>
					</trkpt>
					<trkpt lat="49.857000" lon="4.904310">
						<ele>282</ele>
						<time>2025-10-27T19:40:50Z</time>
					</trkpt>
					<trkpt lat="49.856850" lon="4.904030">
						<ele>287</ele>
						<time>2025-10-27T19:41:01Z</time>
					</trkpt>
					<trkpt lat="49.856490" lon="4.903410">
						<ele>300</ele>
						<time>2025-10-27T19:41:28Z</time>
					</trkpt>
					<trkpt lat="49.856360" lon="4.903350">
						<ele>304</ele>
						<time>2025-10-27T19:41:35Z</time>
					</trkpt>
					<trkpt lat="49.856220" lon="4.903390">
						<ele>308</ele>
						<time>2025-10-27T19:41:42Z</time>
					</trkpt>
					<trkpt lat="49.856060" lon="4.903470">
						<ele>312</ele>
						<time>2025-10-27T19:41:51Z</time>
					</trkpt>
					<trkpt lat="49.855880" lon="4.903620">
						<ele>316</ele>
						<time>2025-10-27T19:42:01Z</time>
					</trkpt>
					<trkpt lat="49.855740" lon="4.903800">
						<ele>318</ele>
						<time>2025-10-27T19:42:10Z</time>
					</trkpt>
					<trkpt lat="49.855660" lon="4.903850">
						<ele>320</ele>
						<time>2025-10-27T19:42:14Z</time>
					</trkpt>
					<trkpt lat="49.855600" lon="4.903840">
						<ele>322</ele>
						<time>2025-10-27T19:42:17Z</time>
					</trkpt>
					<trkpt lat="49.855560" lon="4.903840">
						<ele>323</ele>
						<time>2025-10-27T19:42:19Z</time>
					</trkpt>
					<trkpt lat="49.855490" lon="4.903800">
						<ele>326</ele>
						<time>2025-10-27T19:42:23Z</time>
					</trkpt>
					<trkpt lat="49.855390" lon="4.903710">
						<ele>329</ele>
						<time>2025-10-27T19:42:29Z</time>
					</trkpt>
					<trkpt lat="49.855140" lon="4.903590">
						<ele>338</ele>
						<time>2025-10-27T19:42:42Z</time>
					</trkpt>
					<trkpt lat="49.854890" lon="4.903440">
						<ele>346</ele>
						<time>2025-10-27T19:42:55Z</time>
					</trkpt>
					<trkpt lat="49.854780" lon="4.903430">
						<ele>349</ele>
						<time>2025-10-27T19:43:01Z</time>
					</trkpt>
					<trkpt lat="49.854690" lon="4.903450">
						<ele>351</ele>
						<time>2025-10-27T19:43:05Z</time>
					</trkpt>
					<trkpt lat="49.854510" lon="4.903590">
						<ele>355</ele>
						<time>2025-10-27T19:43:15Z</time>
					</trkpt>
					<trkpt lat="49.854150" lon="4.903980">
						<ele>364</ele>
						<time>2025-10-27T19:43:37Z</time>
					</trkpt>
					<trkpt lat="49.853870" lon="4.904420">
						<ele>366</ele>
						<time>2025-10-27T19:43:57Z</time>
					</trkpt>
					<trkpt lat="49.853660" lon="4.904800">
						<ele>367</ele>
						<time>2025-10-27T19:44:13Z</time>
					</trkpt>
					<trkpt lat="49.853550" lon="4.904970">
						<ele>368</ele>
						<time>2025-10-27T19:44:21Z</time>
					</trkpt>
					<trkpt lat="49.853390" lon="4.905130">
						<ele>370</ele>
						<time>2025-10-27T19:44:31Z</time>
					</trkpt>
					<trkpt lat="49.853400" lon="4.905360">
						<ele>368</ele>
						<time>2025-10-27T19:44:38Z</time>
					</trkpt>
					<trkpt lat="49.853550" lon="4.905750">
						<ele>359</ele>
						<time>2025-10-27T19:44:53Z</time>
					</trkpt>
					<trkpt lat="49.853600" lon="4.905880">
						<ele>356</ele>
						<time>2025-10-27T19:44:58Z</time>
					</trkpt>
					<trkpt lat="49.853850" lon="4.906280">
						<ele>347</ele>
						<time>2025-10-27T19:45:16Z</time>
					</trkpt>
					<trkpt lat="49.854120" lon="4.906590">
						<ele>339</ele>
						<time>2025-10-27T19:45:33Z</time>
					</trkpt>
					<trkpt lat="49.854500" lon="4.906950">
						<ele>335</ele>
						<time>2025-10-27T19:45:55Z</time>
					</trkpt>
					<trkpt lat="49.854850" lon="4.907450">
						<ele>335</ele>
						<time>2025-10-27T19:46:19Z</time>
					</trkpt>
					<trkpt lat="49.855070" lon="4.907360">
						<ele>328</ele>
						<time>2025-10-27T19:46:30Z</time>
					</trkpt>
					<trkpt lat="49.855560" lon="4.906920">
						<ele>304</ele>
						<time>2025-10-27T19:46:58Z</time>
					</trkpt>
					<trkpt lat="49.855590" lon="4.906910">
						<ele>303</ele>
						<time>2025-10-27T19:47:00Z</time>
					</trkpt>
					<trkpt lat="49.855810" lon="4.906870">
						<ele>295</ele>
						<time>2025-10-27T19:47:11Z</time>
					</trkpt>
					<trkpt lat="49.855940" lon="4.906890">
						<ele>290</ele>
						<time>2025-10-27T19:47:17Z</time>
					</trkpt>
					<trkpt lat="49.855960" lon="4.906890">
						<ele>290</ele>
						<time>2025-10-27T19:47:18Z</time>
					</trkpt>
					<trkpt lat="49.856070" lon="4.906760">
						<ele>285</ele>
						<time>2025-10-27T19:47:25Z</time>
					</trkpt>
					<trkpt lat="49.856260" lon="4.906500">
						<ele>278</ele>
						<time>2025-10-27T19:47:38Z</time>
					</trkpt>
					<trkpt lat="49.856350" lon="4.906270">
						<ele>274</ele>
						<time>2025-10-27T19:47:47Z</time>
					</trkpt>
					<trkpt lat="49.856670" lon="4.906350">
						<ele>266</ele>
						<time>2025-10-27T19:48:03Z</time>
					</trkpt>
					<trkpt lat="49.856980" lon="4.906440">
						<ele>255</ele>
						<time>2025-10-27T19:48:19Z</time>
					</trkpt>
					<trkpt lat="49.857230" lon="4.906640">
						<ele>244</ele>
						<time>2025-10-27T19:48:33Z</time>
					</trkpt>
					<trkpt lat="49.857500" lon="4.906830">
						<ele>234</ele>
						<time>2025-10-27T19:48:48Z</time>
					</trkpt>
					<trkpt lat="49.858160" lon="4.908070">
						<ele>219</ele>
						<time>2025-10-27T19:49:40Z</time>
					</trkpt>
					<trkpt lat="49.858370" lon="4.908160">
						<ele>215</ele>
						<time>2025-10-27T19:49:50Z</time>
					</trkpt>
					<trkpt lat="49.858510" lon="4.908230">
						<ele>215</ele>
						<time>2025-10-27T19:49:58Z</time>
					</trkpt>
					<trkpt lat="49.858570" lon="4.908310">
						<ele>215</ele>
						<time>2025-10-27T19:50:02Z</time>
					</trkpt>
					<trkpt lat="49.858600" lon="4.908340">
						<ele>215</ele>
						<time>2025-10-27T19:50:04Z</time>
					</trkpt>
					<trkpt lat="49.858600" lon="4.908340">
						<ele>215</ele>
						<time>2025-10-27T19:50:04Z</time>
					</trkpt>
					<trkpt lat="49.858620" lon="4.908370">
						<ele>215</ele>
						<time>2025-10-27T19:50:05Z</time>
					</trkpt>
					<trkpt lat="49.858760" lon="4.908550">
						<ele>217</ele>
						<time>2025-10-27T19:50:14Z</time>
					</trkpt>
					<trkpt lat="49.858990" lon="4.909010">
						<ele>226</ele>
						<time>2025-10-27T19:50:33Z</time>
					</trkpt>
					<trkpt lat="49.859200" lon="4.909500">
						<ele>240</ele>
						<time>2025-10-27T19:50:52Z</time>
					</trkpt>
					<trkpt lat="49.859450" lon="4.909950">
						<ele>259</ele>
						<time>2025-10-27T19:51:11Z</time>
					</trkpt>
					<trkpt lat="49.859510" lon="4.909960">
						<ele>261</ele>
						<time>2025-10-27T19:51:14Z</time>
					</trkpt>
					<trkpt lat="49.859560" lon="4.909960">
						<ele>263</ele>
						<time>2025-10-27T19:51:17Z</time>
					</trkpt>
					<trkpt lat="49.859600" lon="4.909780">
						<ele>261</ele>
						<time>2025-10-27T19:51:23Z</time>
					</trkpt>
					<trkpt lat="49.859660" lon="4.909600">
						<ele>259</ele>
						<time>2025-10-27T19:51:29Z</time>
					</trkpt>
					<trkpt lat="49.859790" lon="4.909350">
						<ele>258</ele>
						<time>2025-10-27T19:51:40Z</time>
					</trkpt>
					<trkpt lat="49.859890" lon="4.909110">
						<ele>257</ele>
						<time>2025-10-27T19:51:49Z</time>
					</trkpt>
					<trkpt lat="49.860070" lon="4.908410">
						<ele>251</ele>
						<time>2025-10-27T19:52:13Z</time>
					</trkpt>
					<trkpt lat="49.860290" lon="4.907770">
						<ele>247</ele>
						<time>2025-10-27T19:52:36Z</time>
					</trkpt>
					<trkpt lat="49.860370" lon="4.907520">
						<ele>246</ele>
						<time>2025-10-27T19:52:45Z</time>
					</trkpt>
					<trkpt lat="49.860410" lon="4.907390">
						<ele>245</ele>
						<time>2025-10-27T19:52:50Z</time>
					</trkpt>
					<trkpt lat="49.860490" lon="4.906760">
						<ele>238</ele>
						<time>2025-10-27T19:53:11Z</time>
					</trkpt>
					<trkpt lat="49.860510" lon="4.906260">
						<ele>231</ele>
						<time>2025-10-27T19:53:27Z</time>
					</trkpt>
					<trkpt lat="49.860550" lon="4.906220">
						<ele>232</ele>
						<time>2025-10-27T19:53:29Z</time>
					</trkpt>
					<trkpt lat="49.860590" lon="4.906140">
						<ele>232</ele>
						<time>2025-10-27T19:53:33Z</time>
					</trkpt>
					<trkpt lat="49.860620" lon="4.906030">
						<ele>231</ele>
						<time>2025-10-27T19:53:36Z</time>
					</trkpt>
					<trkpt lat="49.860680" lon="4.905910">
						<ele>231</ele>
						<time>2025-10-27T19:53:41Z</time>
					</trkpt>
					<trkpt lat="49.860850" lon="4.905650">
						<ele>232</ele>
						<time>2025-10-27T19:53:53Z</time>
					</trkpt>
					<trkpt lat="49.861170" lon="4.905270">
						<ele>237</ele>
						<time>2025-10-27T19:54:14Z</time>
					</trkpt>
					<trkpt lat="49.861300" lon="4.905110">
						<ele>239</ele>
						<time>2025-10-27T19:54:22Z</time>
					</trkpt>
					<trkpt lat="49.861500" lon="4.904930">
						<ele>242</ele>
						<time>2025-10-27T19:54:33Z</time>
					</trkpt>
					<trkpt lat="49.862170" lon="4.904030">
						<ele>238</ele>
						<time>2025-10-27T19:55:18Z</time>
					</trkpt>
					<trkpt lat="49.862240" lon="4.903850">
						<ele>235</ele>
						<time>2025-10-27T19:55:25Z</time>
					</trkpt>
					<trkpt lat="49.862270" lon="4.903680">
						<ele>230</ele>
						<time>2025-10-27T19:55:30Z</time>
					</trkpt>
					<trkpt lat="49.862400" lon="4.903540">
						<ele>230</ele>
						<time>2025-10-27T19:55:38Z</time>
					</trkpt>
					<trkpt lat="49.862460" lon="4.903480">
						<ele>230</ele>
						<time>2025-10-27T19:55:42Z</time>
					</trkpt>
					<trkpt lat="49.862510" lon="4.903460">
						<ele>231</ele>
						<time>2025-10-27T19:55:44Z</time>
					</trkpt>
					<trkpt lat="49.862810" lon="4.903530">
						<ele>230</ele>
						<time>2025-10-27T19:55:59Z</time>
					</trkpt>
					<trkpt lat="49.862750" lon="4.903580">
						<ele>232</ele>
						<time>2025-10-27T19:56:03Z</time>
					</trkpt>
					<trkpt lat="49.862730" lon="4.903620">
						<ele>234</ele>
						<time>2025-10-27T19:56:05Z</time>
					</trkpt>
					<trkpt lat="49.862620" lon="4.903710">
						<ele>237</ele>
						<time>2025-10-27T19:56:11Z</time>
					</trkpt>
					<trkpt lat="49.862520" lon="4.903840">
						<ele>243</ele>
						<time>2025-10-27T19:56:17Z</time>
					</trkpt>
					<trkpt lat="49.862460" lon="4.903960">
						<ele>245</ele>
						<time>2025-10-27T19:56:22Z</time>
					</trkpt>
					<trkpt lat="49.862440" lon="4.904020">
						<ele>246</ele>
						<time>2025-10-27T19:56:24Z</time>
					</trkpt>
					<trkpt lat="49.862440" lon="4.904080">
						<ele>248</ele>
						<time>2025-10-27T19:56:26Z</time>
					</trkpt>
					<trkpt lat="49.862450" lon="4.904150">
						<ele>251</ele>
						<time>2025-10-27T19:56:29Z</time>
					</trkpt>
					<trkpt lat="49.862460" lon="4.904170">
						<ele>252</ele>
						<time>2025-10-27T19:56:29Z</time>
					</trkpt>
					<trkpt lat="49.862490" lon="4.904150">
						<ele>252</ele>
						<time>2025-10-27T19:56:31Z</time>
					</trkpt>
					<trkpt lat="49.862540" lon="4.904080">
						<ele>250</ele>
						<time>2025-10-27T19:56:34Z</time>
					</trkpt>
					<trkpt lat="49.862590" lon="4.904060">
						<ele>248</ele>
						<time>2025-10-27T19:56:37Z</time>
					</trkpt>
					<trkpt lat="49.862600" lon="4.904070">
						<ele>248</ele>
						<time>2025-10-27T19:56:38Z</time>
					</trkpt>
					<trkpt lat="49.862610" lon="4.904110">
						<ele>249</ele>
						<time>2025-10-27T19:56:39Z</time>
					</trkpt>
					<trkpt lat="49.862590" lon="4.904220">
						<ele>253</ele>
						<time>2025-10-27T19:56:43Z</time>
					</trkpt>
					<trkpt lat="49.862590" lon="4.904410">
						<ele>258</ele>
						<time>2025-10-27T19:56:49Z</time>
					</trkpt>
					<trkpt lat="49.862600" lon="4.904430">
						<ele>258</ele>
						<time>2025-10-27T19:56:50Z</time>
					</trkpt>
					<trkpt lat="49.862670" lon="4.904370">
						<ele>255</ele>
						<time>2025-10-27T19:56:54Z</time>
					</trkpt>
					<trkpt lat="49.862680" lon="4.904360">
						<ele>255</ele>
						<time>2025-10-27T19:56:54Z</time>
					</trkpt>
					<trkpt lat="49.862740" lon="4.904340">
						<ele>253</ele>
						<time>2025-10-27T19:56:57Z</time>
					</trkpt>
					<trkpt lat="49.862760" lon="4.904360">
						<ele>253</ele>
						<time>2025-10-27T19:56:58Z</time>
					</trkpt>
					<trkpt lat="49.862790" lon="4.904370">
						<ele>253</ele>
						<time>2025-10-27T19:57:00Z</time>
					</trkpt>
					<trkpt lat="49.862870" lon="4.904490">
						<ele>254</ele>
						<time>2025-10-27T19:57:06Z</time>
					</trkpt>
					<trkpt lat="49.862900" lon="4.904560">
						<ele>256</ele>
						<time>2025-10-27T19:57:08Z</time>
					</trkpt>
					<trkpt lat="49.862910" lon="4.904590">
						<ele>256</ele>
						<time>2025-10-27T19:57:09Z</time>
					</trkpt>
					<trkpt lat="49.862950" lon="4.904640">
						<ele>256</ele>
						<time>2025-10-27T19:57:12Z</time>
					</trkpt>
					<trkpt lat="49.863020" lon="4.904630">
						<ele>255</ele>
						<time>2025-10-27T19:57:15Z</time>
					</trkpt>
					<trkpt lat="49.863040" lon="4.904600">
						<ele>254</ele>
						<time>2025-10-27T19:57:17Z</time>
					</trkpt>
					<trkpt lat="49.863090" lon="4.904650">
						<ele>254</ele>
						<time>2025-10-27T19:57:20Z</time>
					</trkpt>
					<trkpt lat="49.862990" lon="4.904780">
						<ele>259</ele>
						<time>2025-10-27T19:57:26Z</time>
					</trkpt>
					<trkpt lat="49.862860" lon="4.904940">
						<ele>266</ele>
						<time>2025-10-27T19:57:35Z</time>
					</trkpt>
					<trkpt lat="49.862790" lon="4.905030">
						<ele>270</ele>
						<time>2025-10-27T19:57:39Z</time>
					</trkpt>
					<trkpt lat="49.862700" lon="4.905230">
						<ele>276</ele>
						<time>2025-10-27T19:57:47Z</time>
					</trkpt>
					<trkpt lat="49.862640" lon="4.905400">
						<ele>282</ele>
						<time>2025-10-27T19:57:53Z</time>
					</trkpt>
					<trkpt lat="49.862570" lon="4.905530">
						<ele>287</ele>
						<time>2025-10-27T19:57:59Z</time>
					</trkpt>
					<trkpt lat="49.862550" lon="4.905610">
						<ele>289</ele>
						<time>2025-10-27T19:58:02Z</time>
					</trkpt>
					<trkpt lat="49.862550" lon="4.905630">
						<ele>290</ele>
						<time>2025-10-27T19:58:02Z</time>
					</trkpt>
					<trkpt lat="49.862570" lon="4.905630">
						<ele>289</ele>
						<time>2025-10-27T19:58:03Z</time>
					</trkpt>
					<trkpt lat="49.862660" lon="4.905590">
						<ele>285</ele>
						<time>2025-10-27T19:58:08Z</time>
					</trkpt>
					<trkpt lat="49.862690" lon="4.905650">
						<ele>286</ele>
						<time>2025-10-27T19:58:10Z</time>
					</trkpt>
					<trkpt lat="49.862710" lon="4.905760">
						<ele>288</ele>
						<time>2025-10-27T19:58:14Z</time>
					</trkpt>
					<trkpt lat="49.862700" lon="4.905850">
						<ele>290</ele>
						<time>2025-10-27T19:58:17Z</time>
					</trkpt>
					<trkpt lat="49.862690" lon="4.906060">
						<ele>294</ele>
						<time>2025-10-27T19:58:24Z</time>
					</trkpt>
					<trkpt lat="49.862700" lon="4.906230">
						<ele>297</ele>
						<time>2025-10-27T19:58:29Z</time>
					</trkpt>
					<trkpt lat="49.862740" lon="4.906330">
						<ele>298</ele>
						<time>2025-10-27T19:58:33Z</time>
					</trkpt>
					<trkpt lat="49.862770" lon="4.906430">
						<ele>298</ele>
						<time>2025-10-27T19:58:37Z</time>
					</trkpt>
					<trkpt lat="49.862760" lon="4.906530">
						<ele>301</ele>
						<time>2025-10-27T19:58:40Z</time>
					</trkpt>
					<trkpt lat="49.862730" lon="4.906640">
						<ele>304</ele>
						<time>2025-10-27T19:58:44Z</time>
					</trkpt>
					<trkpt lat="49.862660" lon="4.906740">
						<ele>308</ele>
						<time>2025-10-27T19:58:49Z</time>
					</trkpt>
					<trkpt lat="49.862600" lon="4.906900">
						<ele>312</ele>
						<time>2025-10-27T19:58:54Z</time>
					</trkpt>
					<trkpt lat="49.862580" lon="4.907030">
						<ele>315</ele>
						<time>2025-10-27T19:58:59Z</time>
					</trkpt>
					<trkpt lat="49.862580" lon="4.907120">
						<ele>316</ele>
						<time>2025-10-27T19:59:02Z</time>
					</trkpt>
					<trkpt lat="49.862590" lon="4.907240">
						<ele>317</ele>
						<time>2025-10-27T19:59:06Z</time>
					</trkpt>
					<trkpt lat="49.862630" lon="4.907400">
						<ele>318</ele>
						<time>2025-10-27T19:59:11Z</time>
					</trkpt>
					<trkpt lat="49.862700" lon="4.907490">
						<ele>317</ele>
						<time>2025-10-27T19:59:16Z</time>
					</trkpt>
					<trkpt lat="49.862850" lon="4.907600">
						<ele>313</ele>
						<time>2025-10-27T19:59:24Z</time>
					</trkpt>
					<trkpt lat="49.862960" lon="4.907740">
						<ele>311</ele>
						<time>2025-10-27T19:59:31Z</time>
					</trkpt>
					<trkpt lat="49.862910" lon="4.907950">
						<ele>314</ele>
						<time>2025-10-27T19:59:38Z</time>
					</trkpt>
					<trkpt lat="49.862860" lon="4.908290">
						<ele>318</ele>
						<time>2025-10-27T19:59:50Z</time>
					</trkpt>
					<trkpt lat="49.862840" lon="4.908690">
						<ele>321</ele>
						<time>2025-10-27T20:00:03Z</time>
					</trkpt>
					<trkpt lat="49.862770" lon="4.908810">
						<ele>323</ele>
						<time>2025-10-27T20:00:08Z</time>
					</trkpt>
					<trkpt lat="49.862760" lon="4.908950">
						<ele>324</ele>
						<time>2025-10-27T20:00:12Z</time>
					</trkpt>
					<trkpt lat="49.862800" lon="4.909130">
						<ele>324</ele>
						<time>2025-10-27T20:00:18Z</time>
					</trkpt>
					<trkpt lat="49.862880" lon="4.909270">
						<ele>323</ele>
						<time>2025-10-27T20:00:24Z</time>
					</trkpt>
					<trkpt lat="49.862930" lon="4.909430">
						<ele>323</ele>
						<time>2025-10-27T20:00:30Z</time>
					</trkpt>
					<trkpt lat="49.862990" lon="4.909590">
						<ele>323</ele>
						<time>2025-10-27T20:00:36Z</time>
					</trkpt>
					<trkpt lat="49.863050" lon="4.909650">
						<ele>322</ele>
						<time>2025-10-27T20:00:40Z</time>
					</trkpt>
					<trkpt lat="49.863090" lon="4.909720">
						<ele>322</ele>
						<time>2025-10-27T20:00:43Z</time>
					</trkpt>
					<trkpt lat="49.863170" lon="4.909910">
						<ele>321</ele>
						<time>2025-10-27T20:00:50Z</time>
					</trkpt>
					<trkpt lat="49.863250" lon="4.909950">
						<ele>319</ele>
						<time>2025-10-27T20:00:54Z</time>
					</trkpt>
					<trkpt lat="49.863400" lon="4.909880">
						<ele>315</ele>
						<time>2025-10-27T20:01:02Z</time>
					</trkpt>
					<trkpt lat="49.863500" lon="4.909890">
						<ele>311</ele>
						<time>2025-10-27T20:01:07Z</time>
					</trkpt>
					<trkpt lat="49.863580" lon="4.909840">
						<ele>307</ele>
						<time>2025-10-27T20:01:11Z</time>
					</trkpt>
					<trkpt lat="49.863760" lon="4.909630">
						<ele>298</ele>
						<time>2025-10-27T20:01:23Z</time>
					</trkpt>
					<trkpt lat="49.863850" lon="4.909600">
						<ele>294</ele>
						<time>2025-10-27T20:01:27Z</time>
					</trkpt>
					<trkpt lat="49.863910" lon="4.909590">
						<ele>291</ele>
						<time>2025-10-27T20:01:30Z</time>
					</trkpt>
					<trkpt lat="49.864000" lon="4.909620">
						<ele>288</ele>
						<time>2025-10-27T20:01:35Z</time>
					</trkpt>
					<trkpt lat="49.864040" lon="4.909670">
						<ele>287</ele>
						<time>2025-10-27T20:01:38Z</time>
					</trkpt>
					<trkpt lat="49.864080" lon="4.909890">
						<ele>289</ele>
						<time>2025-10-27T20:01:45Z</time>
					</trkpt>
					<trkpt lat="49.864170" lon="4.910200">
						<ele>290</ele>
						<time>2025-10-27T20:01:56Z</time>
					</trkpt>
					<trkpt lat="49.864180" lon="4.910320">
						<ele>291</ele>
						<time>2025-10-27T20:02:00Z</time>
					</trkpt>
					<trkpt lat="49.864160" lon="4.910440">
						<ele>294</ele>
						<time>2025-10-27T20:02:04Z</time>
					</trkpt>
					<trkpt lat="49.864150" lon="4.910580">
						<ele>296</ele>
						<time>2025-10-27T20:02:08Z</time>
					</trkpt>
					<trkpt lat="49.864160" lon="4.910670">
						<ele>297</ele>
						<time>2025-10-27T20:02:11Z</time>
					</trkpt>
					<trkpt lat="49.864220" lon="4.910760">
						<ele>297</ele>
						<time>2025-10-27T20:02:15Z</time>
					</trkpt>
					<trkpt lat="49.864310" lon="4.910840">
						<ele>295</ele>
						<time>2025-10-27T20:02:21Z</time>
					</trkpt>
					<trkpt lat="49.864540" lon="4.910990">
						<ele>293</ele>
						<time>2025-10-27T20:02:33Z</time>
					</trkpt>
					<trkpt lat="49.864720" lon="4.911080">
						<ele>291</ele>
						<time>2025-10-27T20:02:43Z</time>
					</trkpt>
					<trkpt lat="49.864850" lon="4.911120">
						<ele>289</ele>
						<time>2025-10-27T20:02:49Z</time>
					</trkpt>
					<trkpt lat="49.864960" lon="4.911130">
						<ele>287</ele>
						<time>2025-10-27T20:02:55Z</time>
					</trkpt>
					<trkpt lat="49.865070" lon="4.911200">
						<ele>287</ele>
						<time>2025-10-27T20:03:01Z</time>
					</trkpt>
					<trkpt lat="49.865200" lon="4.911290">
						<ele>286</ele>
						<time>2025-10-27T20:03:08Z</time>
					</trkpt>
					<trkpt lat="49.865280" lon="4.911410">
						<ele>288</ele>
						<time>2025-10-27T20:03:13Z</time>
					</trkpt>
					<trkpt lat="49.865430" lon="4.911510">
						<ele>287</ele>
						<time>2025-10-27T20:03:22Z</time>
					</trkpt>
					<trkpt lat="49.865570" lon="4.911680">
						<ele>288</ele>
						<time>2025-10-27T20:03:30Z</time>
					</trkpt>
					<trkpt lat="49.865870" lon="4.911830">
						<ele>284</ele>
						<time>2025-10-27T20:03:46Z</time>
					</trkpt>
					<trkpt lat="49.865960" lon="4.911840">
						<ele>283</ele>
						<time>2025-10-27T20:03:51Z</time>
					</trkpt>
					<trkpt lat="49.866130" lon="4.911830">
						<ele>280</ele>
						<time>2025-10-27T20:03:59Z</time>
					</trkpt>
					<trkpt lat="49.866220" lon="4.911840">
						<ele>280</ele>
						<time>2025-10-27T20:04:04Z</time>
					</trkpt>
					<trkpt lat="49.866400" lon="4.911890">
						<ele>278</ele>
						<time>2025-10-27T20:04:13Z</time>
					</trkpt>
					<trkpt lat="49.866680" lon="4.911840">
						<ele>274</ele>
						<time>2025-10-27T20:04:27Z</time>
					</trkpt>
					<trkpt lat="49.866890" lon="4.911860">
						<ele>271</ele>
						<time>2025-10-27T20:04:38Z</time>
					</trkpt>
					<trkpt lat="49.867090" lon="4.911910">
						<ele>270</ele>
						<time>2025-10-27T20:04:48Z</time>
					</trkpt>
					<trkpt lat="49.867290" lon="4.911910">
						<ele>267</ele>
						<time>2025-10-27T20:04:58Z</time>
					</trkpt>
					<trkpt lat="49.867330" lon="4.911860">
						<ele>266</ele>
						<time>2025-10-27T20:05:00Z</time>
					</trkpt>
					<trkpt lat="49.867330" lon="4.911760">
						<ele>264</ele>
						<time>2025-10-27T20:05:03Z</time>
					</trkpt>
					<trkpt lat="49.867290" lon="4.911690">
						<ele>263</ele>
						<time>2025-10-27T20:05:06Z</time>
					</trkpt>
					<trkpt lat="49.866340" lon="4.910580">
						<ele>247</ele>
						<time>2025-10-27T20:06:06Z</time>
					</trkpt>
					<trkpt lat="49.865870" lon="4.910110">
						<ele>241</ele>
						<time>2025-10-27T20:06:34Z</time>
					</trkpt>
					<trkpt lat="49.865700" lon="4.909930">
						<ele>240</ele>
						<time>2025-10-27T20:06:44Z</time>
					</trkpt>
					<trkpt lat="49.865370" lon="4.909400">
						<ele>233</ele>
						<time>2025-10-27T20:07:08Z</time>
					</trkpt>
					<trkpt lat="49.865150" lon="4.908990">
						<ele>227</ele>
						<time>2025-10-27T20:07:25Z</time>
					</trkpt>
					<trkpt lat="49.865080" lon="4.908690">
						<ele>222</ele>
						<time>2025-10-27T20:07:36Z</time>
					</trkpt>
					<trkpt lat="49.865040" lon="4.908430">
						<ele>216</ele>
						<time>2025-10-27T20:07:44Z</time>
					</trkpt>
					<trkpt lat="49.865000" lon="4.908260">
						<ele>213</ele>
						<time>2025-10-27T20:07:50Z</time>
					</trkpt>
					<trkpt lat="49.864890" lon="4.908020">
						<ele>213</ele>
						<time>2025-10-27T20:08:00Z</time>
					</trkpt>
					<trkpt lat="49.864740" lon="4.907720">
						<ele>213</ele>
						<time>2025-10-27T20:08:12Z</time>
					</trkpt>
					<trkpt lat="49.864360" lon="4.906550">
						<ele>210</ele>
						<time>2025-10-27T20:08:54Z</time>
					</trkpt>
					<trkpt lat="49.864320" lon="4.906200">
						<ele>205</ele>
						<time>2025-10-27T20:09:05Z</time>
					</trkpt>
					<trkpt lat="49.864330" lon="4.906100">
						<ele>203</ele>
						<time>2025-10-27T20:09:09Z</time>
					</trkpt>
					<trkpt lat="49.864280" lon="4.905880">
						<ele>200</ele>
						<time>2025-10-27T20:09:16Z</time>
					</trkpt>
					<trkpt lat="49.864250" lon="4.905670">
						<ele>198</ele>
						<time>2025-10-27T20:09:23Z</time>
					</trkpt>
					<trkpt lat="49.863970" lon="4.904270">
						<ele>197</ele>
						<time>2025-10-27T20:10:11Z</time>
					</trkpt>
					<trkpt lat="49.863900" lon="4.904010">
						<ele>199</ele>
						<time>2025-10-27T20:10:20Z</time>
					</trkpt>
					<trkpt lat="49.863770" lon="4.903520">
						<ele>202</ele>
						<time>2025-10-27T20:10:37Z</time>
					</trkpt>
					<trkpt lat="49.863710" lon="4.903200">
						<ele>201</ele>
						<time>2025-10-27T20:10:47Z</time>
					</trkpt>
					<trkpt lat="49.863700" lon="4.903120">
						<ele>200</ele>
						<time>2025-10-27T20:10:50Z</time>
					</trkpt>
					<trkpt lat="49.863690" lon="4.902860">
						<ele>197</ele>
						<time>2025-10-27T20:10:58Z</time>
					</trkpt>
					<trkpt lat="49.863610" lon="4.902110">
						<ele>188</ele>
						<time>2025-10-27T20:11:23Z</time>
					</trkpt>
					<trkpt lat="49.863740" lon="4.902090">
						<ele>186</ele>
						<time>2025-10-27T20:11:30Z</time>
					</trkpt>
					<trkpt lat="49.864680" lon="4.902000">
						<ele>179</ele>
						<time>2025-10-27T20:12:17Z</time>
					</trkpt>
					<trkpt lat="49.864680" lon="4.902070">
						<ele>179</ele>
						<time>2025-10-27T20:12:19Z</time>
					</trkpt>
					<trkpt lat="49.864330" lon="4.902130">
						<ele>178</ele>
						<time>2025-10-27T20:12:37Z</time>
					</trkpt>
					<trkpt lat="49.864270" lon="4.902150">
						<ele>177</ele>
						<time>2025-10-27T20:12:40Z</time>
					</trkpt>
					<trkpt lat="49.864260" lon="4.902230">
						<ele>177</ele>
						<time>2025-10-27T20:12:42Z</time>
					</trkpt>
					<trkpt lat="49.864270" lon="4.902390">
						<ele>177</ele>
						<time>2025-10-27T20:12:47Z</time>
					</trkpt>
					<trkpt lat="49.864280" lon="4.902580">
						<ele>178</ele>
						<time>2025-10-27T20:12:54Z</time>
					</trkpt>
					<trkpt lat="49.864300" lon="4.902720">
						<ele>178</ele>
						<time>2025-10-27T20:12:58Z</time>
					</trkpt>
					<trkpt lat="49.864380" lon="4.902920">
						<ele>179</ele>
						<time>2025-10-27T20:13:06Z</time>
					</trkpt>
					<trkpt lat="49.864470" lon="4.903080">
						<ele>180</ele>
						<time>2025-10-27T20:13:13Z</time>
					</trkpt>
					<trkpt lat="49.864540" lon="4.903220">
						<ele>180</ele>
						<time>2025-10-27T20:13:18Z</time>
					</trkpt>
					<trkpt lat="49.864620" lon="4.903430">
						<ele>180</ele>
						<time>2025-10-27T20:13:26Z</time>
					</trkpt>
					<trkpt lat="49.864750" lon="4.903620">
						<ele>180</ele>
						<time>2025-10-27T20:13:35Z</time>
					</trkpt>
					<trkpt lat="49.864860" lon="4.903820">
						<ele>180</ele>
						<time>2025-10-27T20:13:44Z</time>
					</trkpt>
					<trkpt lat="49.865220" lon="4.904310">
						<ele>183</ele>
						<time>2025-10-27T20:14:08Z</time>
					</trkpt>
					<trkpt lat="49.865310" lon="4.904480">
						<ele>183</ele>
						<time>2025-10-27T20:14:15Z</time>
					</trkpt>
					<trkpt lat="49.865440" lon="4.904660">
						<ele>184</ele>
						<time>2025-10-27T20:14:23Z</time>
					</trkpt>
					<trkpt lat="49.865600" lon="4.904840">
						<ele>184</ele>
						<time>2025-10-27T20:14:33Z</time>
					</trkpt>
					<trkpt lat="49.866030" lon="4.905220">
						<ele>187</ele>
						<time>2025-10-27T20:14:58Z</time>
					</trkpt>
					<trkpt lat="49.866130" lon="4.905280">
						<ele>189</ele>
						<time>2025-10-27T20:15:03Z</time>
					</trkpt>
					<trkpt lat="49.866240" lon="4.905360">
						<ele>189</ele>
						<time>2025-10-27T20:15:10Z</time>
					</trkpt>
					<trkpt lat="49.866380" lon="4.905440">
						<ele>190</ele>
						<time>2025-10-27T20:15:17Z</time>
					</trkpt>
					<trkpt lat="49.866520" lon="4.905540">
						<ele>190</ele>
						<time>2025-10-27T20:15:25Z</time>
					</trkpt>
					<trkpt lat="49.866600" lon="4.905570">
						<ele>191</ele>
						<time>2025-10-27T20:15:29Z</time>
					</trkpt>
					<trkpt lat="49.866750" lon="4.905290">
						<ele>198</ele>
						<time>2025-10-27T20:15:41Z</time>
					</trkpt>
					<trkpt lat="49.866800" lon="4.905300">
						<ele>199</ele>
						<time>2025-10-27T20:15:43Z</time>
					</trkpt>
					<trkpt lat="49.866910" lon="4.905370">
						<ele>199</ele>
						<time>2025-10-27T20:15:49Z</time>
					</trkpt>
					<trkpt lat="49.867060" lon="4.905420">
						<ele>199</ele>
						<time>2025-10-27T20:15:57Z</time>
					</trkpt>
					<trkpt lat="49.867210" lon="4.905320">
						<ele>204</ele>
						<time>2025-10-27T20:16:05Z</time>
					</trkpt>
					<trkpt lat="49.867390" lon="4.905310">
						<ele>206</ele>
						<time>2025-10-27T20:16:14Z</time>
					</trkpt>
					<trkpt lat="49.867830" lon="4.905360">
						<ele>208</ele>
						<time>2025-10-27T20:16:36Z</time>
					</trkpt>
					<trkpt lat="49.868030" lon="4.905340">
						<ele>209</ele>
						<time>2025-10-27T20:16:46Z</time>
					</trkpt>
					<trkpt lat="49.868220" lon="4.905290">
						<ele>211</ele>
						<time>2025-10-27T20:16:56Z</time>
					</trkpt>
					<trkpt lat="49.868290" lon="4.905290">
						<ele>212</ele>
						<time>2025-10-27T20:16:59Z</time>
					</trkpt>
					<trkpt lat="49.868440" lon="4.905290">
						<ele>213</ele>
						<time>2025-10-27T20:17:07Z</time>
					</trkpt>
					<trkpt lat="49.868610" lon="4.905170">
						<ele>219</ele>
						<time>2025-10-27T20:17:16Z</time>
					</trkpt>
					<trkpt lat="49.868680" lon="4.905000">
						<ele>224</ele>
						<time>2025-10-27T20:17:23Z</time>
					</trkpt>
					<trkpt lat="49.868680" lon="4.904870">
						<ele>227</ele>
						<time>2025-10-27T20:17:27Z</time>
					</trkpt>
					<trkpt lat="49.868670" lon="4.904770">
						<ele>228</ele>
						<time>2025-10-27T20:17:30Z</time>
					</trkpt>
					<trkpt lat="49.868720" lon="4.904630">
						<ele>232</ele>
						<time>2025-10-27T20:17:35Z</time>
					</trkpt>
					<trkpt lat="49.868760" lon="4.904540">
						<ele>234</ele>
						<time>2025-10-27T20:17:39Z</time>
					</trkpt>
					<trkpt lat="49.868810" lon="4.904380">
						<ele>237</ele>
						<time>2025-10-27T20:17:44Z</time>
					</trkpt>
					<trkpt lat="49.868830" lon="4.904300">
						<ele>239</ele>
						<time>2025-10-27T20:17:47Z</time>
					</trkpt>
					<trkpt lat="49.868900" lon="4.904340">
						<ele>239</ele>
						<time>2025-10-27T20:17:51Z</time>
					</trkpt>
					<trkpt lat="49.868970" lon="4.904470">
						<ele>238</ele>
						<time>2025-10-27T20:17:56Z</time>
					</trkpt>
					<trkpt lat="49.869060" lon="4.904690">
						<ele>235</ele>
						<time>2025-10-27T20:18:05Z</time>
					</trkpt>
					<trkpt lat="49.869140" lon="4.904790">
						<ele>235</ele>
						<time>2025-10-27T20:18:10Z</time>
					</trkpt>
					<trkpt lat="49.869250" lon="4.904810">
						<ele>236</ele>
						<time>2025-10-27T20:18:15Z</time>
					</trkpt>
					<trkpt lat="49.869340" lon="4.904870">
						<ele>237</ele>
						<time>2025-10-27T20:18:20Z</time>
					</trkpt>
					<trkpt lat="49.869450" lon="4.904910">
						<ele>238</ele>
						<time>2025-10-27T20:18:26Z</time>
					</trkpt>
					<trkpt lat="49.869570" lon="4.904860">
						<ele>240</ele>
						<time>2025-10-27T20:18:32Z</time>
					</trkpt>
					<trkpt lat="49.869660" lon="4.904850">
						<ele>242</ele>
						<time>2025-10-27T20:18:37Z</time>
					</trkpt>
					<trkpt lat="49.869900" lon="4.904900">
						<ele>245</ele>
						<time>2025-10-27T20:18:49Z</time>
					</trkpt>
					<trkpt lat="49.870080" lon="4.904980">
						<ele>245</ele>
						<time>2025-10-27T20:18:58Z</time>
					</trkpt>
					<trkpt lat="49.870170" lon="4.905000">
						<ele>245</ele>
						<time>2025-10-27T20:19:03Z</time>
					</trkpt>
					<trkpt lat="49.870390" lon="4.904990">
						<ele>247</ele>
						<time>2025-10-27T20:19:14Z</time>
					</trkpt>
					<trkpt lat="49.870530" lon="4.905010">
						<ele>248</ele>
						<time>2025-10-27T20:19:21Z</time>
					</trkpt>
					<trkpt lat="49.870820" lon="4.905130">
						<ele>247</ele>
						<time>2025-10-27T20:19:36Z</time>
					</trkpt>
					<trkpt lat="49.871120" lon="4.905180">
						<ele>247</ele>
						<time>2025-10-27T20:19:51Z</time>
					</trkpt>
					<trkpt lat="49.871330" lon="4.905160">
						<ele>249</ele>
						<time>2025-10-27T20:20:01Z</time>
					</trkpt>
					<trkpt lat="49.871490" lon="4.905170">
						<ele>250</ele>
						<time>2025-10-27T20:20:09Z</time>
					</trkpt>
					<trkpt lat="49.871540" lon="4.905200">
						<ele>249</ele>
						<time>2025-10-27T20:20:12Z</time>
					</trkpt>
					<trkpt lat="49.871890" lon="4.905360">
						<ele>246</ele>
						<time>2025-10-27T20:20:30Z</time>
					</trkpt>
					<trkpt lat="49.872250" lon="4.905460">
						<ele>245</ele>
						<time>2025-10-27T20:20:49Z</time>
					</trkpt>
					<trkpt lat="49.872360" lon="4.905460">
						<ele>245</ele>
						<time>2025-10-27T20:20:54Z</time>
					</trkpt>
					<trkpt lat="49.872440" lon="4.905450">
						<ele>246</ele>
						<time>2025-10-27T20:20:58Z</time>
					</trkpt>
					<trkpt lat="49.872590" lon="4.905390">
						<ele>248</ele>
						<time>2025-10-27T20:21:06Z</time>
					</trkpt>
					<trkpt lat="49.872900" lon="4.905410">
						<ele>248</ele>
						<time>2025-10-27T20:21:22Z</time>
					</trkpt>
					<trkpt lat="49.873370" lon="4.905410">
						<ele>249</ele>
						<time>2025-10-27T20:21:45Z</time>
					</trkpt>
					<trkpt lat="49.873530" lon="4.905350">
						<ele>250</ele>
						<time>2025-10-27T20:21:53Z</time>
					</trkpt>
					<trkpt lat="49.873660" lon="4.905340">
						<ele>251</ele>
						<time>2025-10-27T20:22:00Z</time>
					</trkpt>
					<trkpt lat="49.873870" lon="4.905480">
						<ele>250</ele>
						<time>2025-10-27T20:22:11Z</time>
					</trkpt>
					<trkpt lat="49.874120" lon="4.905690">
						<ele>250</ele>
						<time>2025-10-27T20:22:25Z</time>
					</trkpt>
					<trkpt lat="49.875030" lon="4.905860">
						<ele>262</ele>
						<time>2025-10-27T20:23:11Z</time>
					</trkpt>
					<trkpt lat="49.875720" lon="4.905970">
						<ele>274</ele>
						<time>2025-10-27T20:23:46Z</time>
					</trkpt>
					<trkpt lat="49.875920" lon="4.906030">
						<ele>278</ele>
						<time>2025-10-27T20:23:56Z</time>
					</trkpt>
					<trkpt lat="49.876180" lon="4.906180">
						<ele>282</ele>
						<time>2025-10-27T20:24:10Z</time>
					</trkpt>
					<trkpt lat="49.876480" lon="4.906370">
						<ele>287</ele>
						<time>2025-10-27T20:24:26Z</time>
					</trkpt>
					<trkpt lat="49.876770" lon="4.906530">
						<ele>291</ele>
						<time>2025-10-27T20:24:42Z</time>
					</trkpt>
					<trkpt lat="49.877030" lon="4.906720">
						<ele>292</ele>
						<time>2025-10-27T20:24:56Z</time>
					</trkpt>
					<trkpt lat="49.877210" lon="4.906760">
						<ele>294</ele>
						<time>2025-10-27T20:25:05Z</time>
					</trkpt>
					<trkpt lat="49.877300" lon="4.906750">
						<ele>296</ele>
						<time>2025-10-27T20:25:10Z</time>
					</trkpt>
					<trkpt lat="49.877860" lon="4.906640">
						<ele>308</ele>
						<time>2025-10-27T20:25:38Z</time>
					</trkpt>
					<trkpt lat="49.877980" lon="4.906670">
						<ele>310</ele>
						<time>2025-10-27T20:25:44Z</time>
					</trkpt>
					<trkpt lat="49.878120" lon="4.906790">
						<ele>310</ele>
						<time>2025-10-27T20:25:52Z</time>
					</trkpt>
					<trkpt lat="49.878250" lon="4.906950">
						<ele>311</ele>
						<time>2025-10-27T20:26:00Z</time>
					</trkpt>
					<trkpt lat="49.878460" lon="4.907410">
						<ele>309</ele>
						<time>2025-10-27T20:26:19Z</time>
					</trkpt>
					<trkpt lat="49.878540" lon="4.907520">
						<ele>309</ele>
						<time>2025-10-27T20:26:24Z</time>
					</trkpt>
					<trkpt lat="49.878690" lon="4.907570">
						<ele>311</ele>
						<time>2025-10-27T20:26:32Z</time>
					</trkpt>
					<trkpt lat="49.878860" lon="4.907540">
						<ele>315</ele>
						<time>2025-10-27T20:26:40Z</time>
					</trkpt>
					<trkpt lat="49.879070" lon="4.907480">
						<ele>320</ele>
						<time>2025-10-27T20:26:51Z</time>
					</trkpt>
					<trkpt lat="49.879120" lon="4.907490">
						<ele>321</ele>
						<time>2025-10-27T20:26:53Z</time>
					</trkpt>
					<trkpt lat="49.879350" lon="4.907640">
						<ele>322</ele>
						<time>2025-10-27T20:27:06Z</time>
					</trkpt>
					<trkpt lat="49.879620" lon="4.907920">
						<ele>323</ele>
						<time>2025-10-27T20:27:22Z</time>
					</trkpt>
					<trkpt lat="49.879790" lon="4.908050">
						<ele>325</ele>
						<time>2025-10-27T20:27:32Z</time>
					</trkpt>
					<trkpt lat="49.879980" lon="4.908200">
						<ele>330</ele>
						<time>2025-10-27T20:27:42Z</time>
					</trkpt>
					<trkpt lat="49.880120" lon="4.908390">
						<ele>330</ele>
						<time>2025-10-27T20:27:52Z</time>
					</trkpt>
					<trkpt lat="49.880300" lon="4.908680">
						<ele>328</ele>
						<time>2025-10-27T20:28:05Z</time>
					</trkpt>
					<trkpt lat="49.881050" lon="4.909740">
						<ele>334</ele>
						<time>2025-10-27T20:28:55Z</time>
					</trkpt>
					<trkpt lat="49.881220" lon="4.909640">
						<ele>337</ele>
						<time>2025-10-27T20:29:04Z</time>
					</trkpt>
					<trkpt lat="49.881390" lon="4.909390">
						<ele>341</ele>
						<time>2025-10-27T20:29:16Z</time>
					</trkpt>
					<trkpt lat="49.881370" lon="4.909230">
						<ele>342</ele>
						<time>2025-10-27T20:29:21Z</time>
					</trkpt>
					<trkpt lat="49.881210" lon="4.908870">
						<ele>340</ele>
						<time>2025-10-27T20:29:35Z</time>
					</trkpt>
					<trkpt lat="49.881120" lon="4.908710">
						<ele>339</ele>
						<time>2025-10-27T20:29:42Z</time>
					</trkpt>
					<trkpt lat="49.881030" lon="4.908530">
						<ele>339</ele>
						<time>2025-10-27T20:29:50Z</time>
					</trkpt>
					<trkpt lat="49.880730" lon="4.907940">
						<ele>336</ele>
						<time>2025-10-27T20:30:14Z</time>
					</trkpt>
					<trkpt lat="49.880650" lon="4.907740">
						<ele>334</ele>
						<time>2025-10-27T20:30:21Z</time>
					</trkpt>
					<trkpt lat="49.880540" lon="4.907430">
						<ele>332</ele>
						<time>2025-10-27T20:30:33Z</time>
					</trkpt>
					<trkpt lat="49.880480" lon="4.907210">
						<ele>331</ele>
						<time>2025-10-27T20:30:41Z</time>
					</trkpt>
					<trkpt lat="49.880290" lon="4.907050">
						<ele>330</ele>
						<time>2025-10-27T20:30:51Z</time>
					</trkpt>
					<trkpt lat="49.880200" lon="4.906940">
						<ele>329</ele>
						<time>2025-10-27T20:30:57Z</time>
					</trkpt>
					<trkpt lat="49.879880" lon="4.906720">
						<ele>328</ele>
						<time>2025-10-27T20:31:15Z</time>
					</trkpt>
					<trkpt lat="49.879420" lon="4.906430">
						<ele>324</ele>
						<time>2025-10-27T20:31:40Z</time>
					</trkpt>
					<trkpt lat="49.879400" lon="4.906230">
						<ele>323</ele>
						<time>2025-10-27T20:31:46Z</time>
					</trkpt>
					<trkpt lat="49.879430" lon="4.906040">
						<ele>321</ele>
						<time>2025-10-27T20:31:52Z</time>
					</trkpt>
					<trkpt lat="49.879450" lon="4.905940">
						<ele>320</ele>
						<time>2025-10-27T20:31:56Z</time>
					</trkpt>
					<trkpt lat="49.880140" lon="4.906160">
						<ele>322</ele>
						<time>2025-10-27T20:32:31Z</time>
					</trkpt>
					<trkpt lat="49.880380" lon="4.906260">
						<ele>323</ele>
						<time>2025-10-27T20:32:43Z</time>
					</trkpt>
					<trkpt lat="49.880500" lon="4.906310">
						<ele>324</ele>
						<time>2025-10-27T20:32:50Z</time>
					</trkpt>
					<trkpt lat="49.880850" lon="4.906390">
						<ele>325</ele>
						<time>2025-10-27T20:33:07Z</time>
					</trkpt>
					<trkpt lat="49.881290" lon="4.906490">
						<ele>328</ele>
						<time>2025-10-27T20:33:30Z</time>
					</trkpt>
					<trkpt lat="49.881390" lon="4.906470">
						<ele>328</ele>
						<time>2025-10-27T20:33:35Z</time>
					</trkpt>
					<trkpt lat="49.881430" lon="4.906430">
						<ele>328</ele>
						<time>2025-10-27T20:33:37Z</time>
					</trkpt>
					<trkpt lat="49.881460" lon="4.906400">
						<ele>328</ele>
						<time>2025-10-27T20:33:39Z</time>
					</trkpt>
					<trkpt lat="49.881510" lon="4.906280">
						<ele>328</ele>
						<time>2025-10-27T20:33:43Z</time>
					</trkpt>
					<trkpt lat="49.881540" lon="4.906090">
						<ele>328</ele>
						<time>2025-10-27T20:33:50Z</time>
					</trkpt>
					<trkpt lat="49.881530" lon="4.905870">
						<ele>328</ele>
						<time>2025-10-27T20:33:57Z</time>
					</trkpt>
					<trkpt lat="49.881600" lon="4.905530">
						<ele>325</ele>
						<time>2025-10-27T20:34:08Z</time>
					</trkpt>
					<trkpt lat="49.881750" lon="4.904980">
						<ele>322</ele>
						<time>2025-10-27T20:34:28Z</time>
					</trkpt>
					<trkpt lat="49.881930" lon="4.904690">
						<ele>324</ele>
						<time>2025-10-27T20:34:41Z</time>
					</trkpt>
					<trkpt lat="49.882000" lon="4.904610">
						<ele>325</ele>
						<time>2025-10-27T20:34:45Z</time>
					</trkpt>
					<trkpt lat="49.882410" lon="4.904090">
						<ele>327</ele>
						<time>2025-10-27T20:35:11Z</time>
					</trkpt>
					<trkpt lat="49.882540" lon="4.904030">
						<ele>329</ele>
						<time>2025-10-27T20:35:18Z</time>
					</trkpt>
					<trkpt lat="49.883340" lon="4.904050">
						<ele>341</ele>
						<time>2025-10-27T20:35:58Z</time>
					</trkpt>
					<trkpt lat="49.883870" lon="4.904120">
						<ele>344</ele>
						<time>2025-10-27T20:36:25Z</time>
					</trkpt>
					<trkpt lat="49.884270" lon="4.904190">
						<ele>346</ele>
						<time>2025-10-27T20:36:45Z</time>
					</trkpt>
					<trkpt lat="49.884670" lon="4.904210">
						<ele>348</ele>
						<time>2025-10-27T20:37:05Z</time>
					</trkpt>
					<trkpt lat="49.884720" lon="4.903650">
						<ele>346</ele>
						<time>2025-10-27T20:37:23Z</time>
					</trkpt>
					<trkpt lat="49.884770" lon="4.903260">
						<ele>345</ele>
						<time>2025-10-27T20:37:36Z</time>
					</trkpt>
					<trkpt lat="49.884880" lon="4.903180">
						<ele>345</ele>
						<time>2025-10-27T20:37:42Z</time>
					</trkpt>
					<trkpt lat="49.884940" lon="4.903170">
						<ele>346</ele>
						<time>2025-10-27T20:37:45Z</time>
					</trkpt>
					<trkpt lat="49.885040" lon="4.903180">
						<ele>346</ele>
						<time>2025-10-27T20:37:50Z</time>
					</trkpt>
					<trkpt lat="49.885090" lon="4.903120">
						<ele>346</ele>
						<time>2025-10-27T20:37:53Z</time>
					</trkpt>
					<trkpt lat="49.885140" lon="4.902770">
						<ele>345</ele>
						<time>2025-10-27T20:38:05Z</time>
					</trkpt>
					<trkpt lat="49.885160" lon="4.902620">
						<ele>344</ele>
						<time>2025-10-27T20:38:10Z</time>
					</trkpt>
					<trkpt lat="49.885180" lon="4.902130">
						<ele>344</ele>
						<time>2025-10-27T20:38:26Z</time>
					</trkpt>
					<trkpt lat="49.885190" lon="4.901650">
						<ele>343</ele>
						<time>2025-10-27T20:38:41Z</time>
					</trkpt>
					<trkpt lat="49.885210" lon="4.901450">
						<ele>341</ele>
						<time>2025-10-27T20:38:48Z</time>
					</trkpt>
					<trkpt lat="49.885360" lon="4.901480">
						<ele>340</ele>
						<time>2025-10-27T20:38:55Z</time>
					</trkpt>
					<trkpt lat="49.885460" lon="4.901500">
						<ele>339</ele>
						<time>2025-10-27T20:39:00Z</time>
					</trkpt>
					<trkpt lat="49.885740" lon="4.901580">
						<ele>338</ele>
						<time>2025-10-27T20:39:15Z</time>
					</trkpt>
					<trkpt lat="49.885880" lon="4.901590">
						<ele>338</ele>
						<time>2025-10-27T20:39:22Z</time>
					</trkpt>
					<trkpt lat="49.886320" lon="4.901330">
						<ele>336</ele>
						<time>2025-10-27T20:39:45Z</time>
					</trkpt>
					<trkpt lat="49.886390" lon="4.901140">
						<ele>334</ele>
						<time>2025-10-27T20:39:52Z</time>
					</trkpt>
					<trkpt lat="49.886420" lon="4.901030">
						<ele>332</ele>
						<time>2025-10-27T20:39:56Z</time>
					</trkpt>
					<trkpt lat="49.886420" lon="4.900900">
						<ele>331</ele>
						<time>2025-10-27T20:40:00Z</time>
					</trkpt>
					<trkpt lat="49.886320" lon="4.900690">
						<ele>328</ele>
						<time>2025-10-27T20:40:09Z</time>
					</trkpt>
					<trkpt lat="49.886220" lon="4.900580">
						<ele>325</ele>
						<time>2025-10-27T20:40:15Z</time>
					</trkpt>
					<trkpt lat="49.886150" lon="4.900430">
						<ele>322</ele>
						<time>2025-10-27T20:40:21Z</time>
					</trkpt>
					<trkpt lat="49.886160" lon="4.900250">
						<ele>320</ele>
						<time>2025-10-27T20:40:27Z</time>
					</trkpt>
					<trkpt lat="49.886220" lon="4.900120">
						<ele>319</ele>
						<time>2025-10-27T20:40:32Z</time>
					</trkpt>
					<trkpt lat="49.886090" lon="4.899570">
						<ele>309</ele>
						<time>2025-10-27T20:40:51Z</time>
					</trkpt>
					<trkpt lat="49.886290" lon="4.898150">
						<ele>303</ele>
						<time>2025-10-27T20:41:37Z</time>
					</trkpt>
					<trkpt lat="49.886380" lon="4.897920">
						<ele>306</ele>
						<time>2025-10-27T20:41:46Z</time>
					</trkpt>
					<trkpt lat="49.886420" lon="4.897710">
						<ele>306</ele>
						<time>2025-10-27T20:41:53Z</time>
					</trkpt>
					<trkpt lat="49.886410" lon="4.897580">
						<ele>305</ele>
						<time>2025-10-27T20:41:57Z</time>
					</trkpt>
					<trkpt lat="49.886340" lon="4.897480">
						<ele>301</ele>
						<time>2025-10-27T20:42:02Z</time>
					</trkpt>
					<trkpt lat="49.886290" lon="4.897380">
						<ele>299</ele>
						<time>2025-10-27T20:42:06Z</time>
					</trkpt>
					<trkpt lat="49.886280" lon="4.897340">
						<ele>298</ele>
						<time>2025-10-27T20:42:08Z</time>
					</trkpt>
					<trkpt lat="49.886210" lon="4.896450">
						<ele>292</ele>
						<time>2025-10-27T20:42:37Z</time>
					</trkpt>
					<trkpt lat="49.886190" lon="4.896300">
						<ele>290</ele>
						<time>2025-10-27T20:42:42Z</time>
					</trkpt>
					<trkpt lat="49.886270" lon="4.895780">
						<ele>290</ele>
						<time>2025-10-27T20:42:59Z</time>
					</trkpt>
					<trkpt lat="49.886420" lon="4.895190">
						<ele>291</ele>
						<time>2025-10-27T20:43:19Z</time>
					</trkpt>
					<trkpt lat="49.886870" lon="4.894210">
						<ele>299</ele>
						<time>2025-10-27T20:43:58Z</time>
					</trkpt>
					<trkpt lat="49.887110" lon="4.893710">
						<ele>306</ele>
						<time>2025-10-27T20:44:18Z</time>
					</trkpt>
					<trkpt lat="49.887170" lon="4.893550">
						<ele>307</ele>
						<time>2025-10-27T20:44:24Z</time>
					</trkpt>
					<trkpt lat="49.887250" lon="4.893190">
						<ele>309</ele>
						<time>2025-10-27T20:44:36Z</time>
					</trkpt>
					<trkpt lat="49.887320" lon="4.893010">
						<ele>311</ele>
						<time>2025-10-27T20:44:43Z</time>
					</trkpt>
					<trkpt lat="49.887380" lon="4.892710">
						<ele>313</ele>
						<time>2025-10-27T20:44:53Z</time>
					</trkpt>
					<trkpt lat="49.887420" lon="4.892230">
						<ele>316</ele>
						<time>2025-10-27T20:45:09Z</time>
					</trkpt>
					<trkpt lat="49.887420" lon="4.891900">
						<ele>318</ele>
						<time>2025-10-27T20:45:20Z</time>
					</trkpt>
					<trkpt lat="49.887420" lon="4.891530">
						<ele>318</ele>
						<time>2025-10-27T20:45:31Z</time>
					</trkpt>
					<trkpt lat="49.887450" lon="4.891110">
						<ele>318</ele>
						<time>2025-10-27T20:45:45Z</time>
					</trkpt>
					<trkpt lat="49.887340" lon="4.890460">
						<ele>307</ele>
						<time>2025-10-27T20:46:07Z</time>
					</trkpt>
					<trkpt lat="49.887390" lon="4.890320">
						<ele>306</ele>
						<time>2025-10-27T20:46:12Z</time>
					</trkpt>
					<trkpt lat="49.887630" lon="4.890260">
						<ele>309</ele>
						<time>2025-10-27T20:46:24Z</time>
					</trkpt>
					<trkpt lat="49.887680" lon="4.890150">
						<ele>307</ele>
						<time>2025-10-27T20:46:28Z</time>
					</trkpt>
					<trkpt lat="49.887710" lon="4.890050">
						<ele>306</ele>
						<time>2025-10-27T20:46:32Z</time>
					</trkpt>
					<trkpt lat="49.887720" lon="4.889940">
						<ele>304</ele>
						<time>2025-10-27T20:46:36Z</time>
					</trkpt>
					<trkpt lat="49.887800" lon="4.889780">
						<ele>303</ele>
						<time>2025-10-27T20:46:42Z</time>
					</trkpt>
					<trkpt lat="49.887830" lon="4.889480">
						<ele>301</ele>
						<time>2025-10-27T20:46:52Z</time>
					</trkpt>
					<trkpt lat="49.887830" lon="4.889320">
						<ele>299</ele>
						<time>2025-10-27T20:46:57Z</time>
					</trkpt>
					<trkpt lat="49.887820" lon="4.889280">
						<ele>299</ele>
						<time>2025-10-27T20:46:58Z</time>
					</trkpt>
					<trkpt lat="49.887820" lon="4.889280">
						<ele>299</ele>
						<time>2025-10-27T20:46:58Z</time>
					</trkpt>
					<trkpt lat="49.887700" lon="4.889240">
						<ele>296</ele>
						<time>2025-10-27T20:47:05Z</time>
					</trkpt>
					<trkpt lat="49.887700" lon="4.889240">
						<ele>296</ele>
						<time>2025-10-27T20:47:05Z</time>
					</trkpt>
					<trkpt lat="49.887620" lon="4.889310">
						<ele>296</ele>
						<time>2025-10-27T20:47:09Z</time>
					</trkpt>
					<trkpt lat="49.887520" lon="4.889340">
						<ele>294</ele>
						<time>2025-10-27T20:47:14Z</time>
					</trkpt>
					<trkpt lat="49.887400" lon="4.889340">
						<ele>293</ele>
						<time>2025-10-27T20:47:20Z</time>
					</trkpt>
					<trkpt lat="49.887030" lon="4.889200">
						<ele>286</ele>
						<time>2025-10-27T20:47:39Z</time>
					</trkpt>
					<trkpt lat="49.886830" lon="4.889190">
						<ele>283</ele>
						<time>2025-10-27T20:47:49Z</time>
					</trkpt>
					<trkpt lat="49.886730" lon="4.889200">
						<ele>282</ele>
						<time>2025-10-27T20:47:54Z</time>
					</trkpt>
					<trkpt lat="49.886640" lon="4.889150">
						<ele>280</ele>
						<time>2025-10-27T20:47:59Z</time>
					</trkpt>
					<trkpt lat="49.886410" lon="4.888970">
						<ele>277</ele>
						<time>2025-10-27T20:48:12Z</time>
					</trkpt>
					<trkpt lat="49.886250" lon="4.888970">
						<ele>272</ele>
						<time>2025-10-27T20:48:20Z</time>
					</trkpt>
					<trkpt lat="49.886210" lon="4.888990">
						<ele>270</ele>
						<time>2025-10-27T20:48:22Z</time>
					</trkpt>
					<trkpt lat="49.886210" lon="4.888990">
						<ele>270</ele>
						<time>2025-10-27T20:48:22Z</time>
					</trkpt>
					<trkpt lat="49.886190" lon="4.889050">
						<ele>268</ele>
						<time>2025-10-27T20:48:24Z</time>
					</trkpt>
					<trkpt lat="49.886140" lon="4.889070">
						<ele>266</ele>
						<time>2025-10-27T20:48:27Z</time>
					</trkpt>
					<trkpt lat="49.886040" lon="4.889010">
						<ele>265</ele>
						<time>2025-10-27T20:48:32Z</time>
					</trkpt>
					<trkpt lat="49.885930" lon="4.889040">
						<ele>261</ele>
						<time>2025-10-27T20:48:38Z</time>
					</trkpt>
					<trkpt lat="49.885840" lon="4.889100">
						<ele>256</ele>
						<time>2025-10-27T20:48:43Z</time>
					</trkpt>
					<trkpt lat="49.885580" lon="4.889180">
						<ele>245</ele>
						<time>2025-10-27T20:48:56Z</time>
					</trkpt>
					<trkpt lat="49.885480" lon="4.889220">
						<ele>241</ele>
						<time>2025-10-27T20:49:01Z</time>
					</trkpt>
					<trkpt lat="49.885440" lon="4.889290">
						<ele>238</ele>
						<time>2025-10-27T20:49:04Z</time>
					</trkpt>
					<trkpt lat="49.885370" lon="4.889360">
						<ele>234</ele>
						<time>2025-10-27T20:49:08Z</time>
					</trkpt>
					<trkpt lat="49.885300" lon="4.889510">
						<ele>229</ele>
						<time>2025-10-27T20:49:14Z</time>
					</trkpt>
					<trkpt lat="49.885230" lon="4.889700">
						<ele>223</ele>
						<time>2025-10-27T20:49:21Z</time>
					</trkpt>
					<trkpt lat="49.885180" lon="4.889770">
						<ele>219</ele>
						<time>2025-10-27T20:49:25Z</time>
					</trkpt>
					<trkpt lat="49.885170" lon="4.889800">
						<ele>218</ele>
						<time>2025-10-27T20:49:26Z</time>
					</trkpt>
					<trkpt lat="49.885130" lon="4.889930">
						<ele>213</ele>
						<time>2025-10-27T20:49:31Z</time>
					</trkpt>
					<trkpt lat="49.885110" lon="4.890320">
						<ele>206</ele>
						<time>2025-10-27T20:49:43Z</time>
					</trkpt>
					<trkpt lat="49.885110" lon="4.890480">
						<ele>204</ele>
						<time>2025-10-27T20:49:48Z</time>
					</trkpt>
					<trkpt lat="49.885090" lon="4.890660">
						<ele>200</ele>
						<time>2025-10-27T20:49:54Z</time>
					</trkpt>
					<trkpt lat="49.885030" lon="4.890770">
						<ele>196</ele>
						<time>2025-10-27T20:49:59Z</time>
					</trkpt>
					<trkpt lat="49.885010" lon="4.890870">
						<ele>193</ele>
						<time>2025-10-27T20:50:02Z</time>
					</trkpt>
					<trkpt lat="49.885020" lon="4.891110">
						<ele>193</ele>
						<time>2025-10-27T20:50:10Z</time>
					</trkpt>
					<trkpt lat="49.885010" lon="4.891220">
						<ele>192</ele>
						<time>2025-10-27T20:50:14Z</time>
					</trkpt>
					<trkpt lat="49.885010" lon="4.891420">
						<ele>191</ele>
						<time>2025-10-27T20:50:20Z</time>
					</trkpt>
					<trkpt lat="49.885030" lon="4.891620">
						<ele>192</ele>
						<time>2025-10-27T20:50:27Z</time>
					</trkpt>
					<trkpt lat="49.885010" lon="4.891750">
						<ele>191</ele>
						<time>2025-10-27T20:50:31Z</time>
					</trkpt>
					<trkpt lat="49.884970" lon="4.891970">
						<ele>190</ele>
						<time>2025-10-27T20:50:38Z</time>
					</trkpt>
					<trkpt lat="49.884970" lon="4.892200">
						<ele>190</ele>
						<time>2025-10-27T20:50:46Z</time>
					</trkpt>
					<trkpt lat="49.885010" lon="4.892980">
						<ele>193</ele>
						<time>2025-10-27T20:51:11Z</time>
					</trkpt>
					<trkpt lat="49.884980" lon="4.893130">
						<ele>193</ele>
						<time>2025-10-27T20:51:16Z</time>
					</trkpt>
					<trkpt lat="49.885020" lon="4.893420">
						<ele>195</ele>
						<time>2025-10-27T20:51:25Z</time>
					</trkpt>
					<trkpt lat="49.884960" lon="4.893910">
						<ele>196</ele>
						<time>2025-10-27T20:51:42Z</time>
					</trkpt>
					<trkpt lat="49.884620" lon="4.894970">
						<ele>200</ele>
						<time>2025-10-27T20:52:20Z</time>
					</trkpt>
					<trkpt lat="49.884360" lon="4.895740">
						<ele>200</ele>
						<time>2025-10-27T20:52:48Z</time>
					</trkpt>
					<trkpt lat="49.884340" lon="4.895900">
						<ele>201</ele>
						<time>2025-10-27T20:52:53Z</time>
					</trkpt>
					<trkpt lat="49.884280" lon="4.896080">
						<ele>201</ele>
						<time>2025-10-27T20:53:00Z</time>
					</trkpt>
					<trkpt lat="49.884300" lon="4.896230">
						<ele>203</ele>
						<time>2025-10-27T20:53:04Z</time>
					</trkpt>
					<trkpt lat="49.884270" lon="4.896400">
						<ele>204</ele>
						<time>2025-10-27T20:53:10Z</time>
					</trkpt>
					<trkpt lat="49.884280" lon="4.896640">
						<ele>207</ele>
						<time>2025-10-27T20:53:18Z</time>
					</trkpt>
					<trkpt lat="49.884200" lon="4.896700">
						<ele>206</ele>
						<time>2025-10-27T20:53:22Z</time>
					</trkpt>
					<trkpt lat="49.884090" lon="4.896740">
						<ele>205</ele>
						<time>2025-10-27T20:53:28Z</time>
					</trkpt>
					<trkpt lat="49.883930" lon="4.896840">
						<ele>205</ele>
						<time>2025-10-27T20:53:37Z</time>
					</trkpt>
					<trkpt lat="49.883770" lon="4.897010">
						<ele>208</ele>
						<time>2025-10-27T20:53:46Z</time>
					</trkpt>
					<trkpt lat="49.883620" lon="4.897100">
						<ele>208</ele>
						<time>2025-10-27T20:53:54Z</time>
					</trkpt>
					<trkpt lat="49.883540" lon="4.897170">
						<ele>209</ele>
						<time>2025-10-27T20:53:59Z</time>
					</trkpt>
					<trkpt lat="49.883420" lon="4.897350">
						<ele>212</ele>
						<time>2025-10-27T20:54:07Z</time>
					</trkpt>
					<trkpt lat="49.883340" lon="4.897400">
						<ele>212</ele>
						<time>2025-10-27T20:54:12Z</time>
					</trkpt>
					<trkpt lat="49.883230" lon="4.897430">
						<ele>211</ele>
						<time>2025-10-27T20:54:17Z</time>
					</trkpt>
					<trkpt lat="49.883120" lon="4.897500">
						<ele>210</ele>
						<time>2025-10-27T20:54:23Z</time>
					</trkpt>
					<trkpt lat="49.882920" lon="4.897540">
						<ele>207</ele>
						<time>2025-10-27T20:54:33Z</time>
					</trkpt>
					<trkpt lat="49.882690" lon="4.897830">
						<ele>211</ele>
						<time>2025-10-27T20:54:48Z</time>
					</trkpt>
					<trkpt lat="49.882840" lon="4.897880">
						<ele>217</ele>
						<time>2025-10-27T20:54:56Z</time>
					</trkpt>
					<trkpt lat="49.882880" lon="4.897910">
						<ele>219</ele>
						<time>2025-10-27T20:54:58Z</time>
					</trkpt>
					<trkpt lat="49.883030" lon="4.897930">
						<ele>223</ele>
						<time>2025-10-27T20:55:06Z</time>
					</trkpt>
					<trkpt lat="49.883020" lon="4.898020">
						<ele>226</ele>
						<time>2025-10-27T20:55:09Z</time>
					</trkpt>
					<trkpt lat="49.883170" lon="4.898100">
						<ele>233</ele>
						<time>2025-10-27T20:55:16Z</time>
					</trkpt>
					<trkpt lat="49.883250" lon="4.898190">
						<ele>239</ele>
						<time>2025-10-27T20:55:21Z</time>
					</trkpt>
					<trkpt lat="49.883270" lon="4.898210">
						<ele>240</ele>
						<time>2025-10-27T20:55:23Z</time>
					</trkpt>
					<trkpt lat="49.883400" lon="4.898270">
						<ele>246</ele>
						<time>2025-10-27T20:55:29Z</time>
					</trkpt>
					<trkpt lat="49.883440" lon="4.898320">
						<ele>249</ele>
						<time>2025-10-27T20:55:32Z</time>
					</trkpt>
					<trkpt lat="49.883400" lon="4.898440">
						<ele>253</ele>
						<time>2025-10-27T20:55:36Z</time>
					</trkpt>
					<trkpt lat="49.883320" lon="4.898590">
						<ele>256</ele>
						<time>2025-10-27T20:55:43Z</time>
					</trkpt>
					<trkpt lat="49.883290" lon="4.898720">
						<ele>260</ele>
						<time>2025-10-27T20:55:47Z</time>
					</trkpt>
					<trkpt lat="49.883300" lon="4.898770">
						<ele>262</ele>
						<time>2025-10-27T20:55:49Z</time>
					</trkpt>
					<trkpt lat="49.883490" lon="4.898800">
						<ele>268</ele>
						<time>2025-10-27T20:55:58Z</time>
					</trkpt>
					<trkpt lat="49.883530" lon="4.898830">
						<ele>270</ele>
						<time>2025-10-27T20:56:01Z</time>
					</trkpt>
					<trkpt lat="49.883550" lon="4.898880">
						<ele>273</ele>
						<time>2025-10-27T20:56:02Z</time>
					</trkpt>
					<trkpt lat="49.883550" lon="4.898980">
						<ele>276</ele>
						<time>2025-10-27T20:56:06Z</time>
					</trkpt>
					<trkpt lat="49.883490" lon="4.899200">
						<ele>283</ele>
						<time>2025-10-27T20:56:13Z</time>
					</trkpt>
					<trkpt lat="49.883360" lon="4.899550">
						<ele>292</ele>
						<time>2025-10-27T20:56:26Z</time>
					</trkpt>
					<trkpt lat="49.883310" lon="4.899820">
						<ele>301</ele>
						<time>2025-10-27T20:56:35Z</time>
					</trkpt>
					<trkpt lat="49.883210" lon="4.900150">
						<ele>309</ele>
						<time>2025-10-27T20:56:47Z</time>
					</trkpt>
					<trkpt lat="49.882750" lon="4.900440">
						<ele>309</ele>
						<time>2025-10-27T20:57:12Z</time>
					</trkpt>
					<trkpt lat="49.882410" lon="4.900560">
						<ele>308</ele>
						<time>2025-10-27T20:57:29Z</time>
					</trkpt>
					<trkpt lat="49.882180" lon="4.900570">
						<ele>304</ele>
						<time>2025-10-27T20:57:41Z</time>
					</trkpt>
					<trkpt lat="49.882050" lon="4.900640">
						<ele>304</ele>
						<time>2025-10-27T20:57:48Z</time>
					</trkpt>
					<trkpt lat="49.882010" lon="4.900910">
						<ele>311</ele>
						<time>2025-10-27T20:57:57Z</time>
					</trkpt>
					<trkpt lat="49.881950" lon="4.901050">
						<ele>312</ele>
						<time>2025-10-27T20:58:02Z</time>
					</trkpt>
					<trkpt lat="49.881930" lon="4.901230">
						<ele>313</ele>
						<time>2025-10-27T20:58:08Z</time>
					</trkpt>
					<trkpt lat="49.881890" lon="4.901340">
						<ele>314</ele>
						<time>2025-10-27T20:58:12Z</time>
					</trkpt>
					<trkpt lat="49.881840" lon="4.901410">
						<ele>314</ele>
						<time>2025-10-27T20:58:16Z</time>
					</trkpt>
					<trkpt lat="49.881670" lon="4.901590">
						<ele>314</ele>
						<time>2025-10-27T20:58:26Z</time>
					</trkpt>
					<trkpt lat="49.881410" lon="4.901740">
						<ele>310</ele>
						<time>2025-10-27T20:58:40Z</time>
					</trkpt>
					<trkpt lat="49.880970" lon="4.901990">
						<ele>301</ele>
						<time>2025-10-27T20:59:03Z</time>
					</trkpt>
					<trkpt lat="49.880650" lon="4.901750">
						<ele>294</ele>
						<time>2025-10-27T20:59:21Z</time>
					</trkpt>
					<trkpt lat="49.880270" lon="4.901680">
						<ele>286</ele>
						<time>2025-10-27T20:59:40Z</time>
					</trkpt>
					<trkpt lat="49.879850" lon="4.900950">
						<ele>270</ele>
						<time>2025-10-27T21:00:12Z</time>
					</trkpt>
					<trkpt lat="49.879610" lon="4.900860">
						<ele>274</ele>
						<time>2025-10-27T21:00:24Z</time>
					</trkpt>
					<trkpt lat="49.879500" lon="4.900880">
						<ele>276</ele>
						<time>2025-10-27T21:00:30Z</time>
					</trkpt>
					<trkpt lat="49.879250" lon="4.900920">
						<ele>282</ele>
						<time>2025-10-27T21:00:42Z</time>
					</trkpt>
					<trkpt lat="49.879140" lon="4.900780">
						<ele>283</ele>
						<time>2025-10-27T21:00:49Z</time>
					</trkpt>
					<trkpt lat="49.879080" lon="4.900570">
						<ele>280</ele>
						<time>2025-10-27T21:00:57Z</time>
					</trkpt>
					<trkpt lat="49.879030" lon="4.900270">
						<ele>276</ele>
						<time>2025-10-27T21:01:07Z</time>
					</trkpt>
					<trkpt lat="49.878900" lon="4.899990">
						<ele>273</ele>
						<time>2025-10-27T21:01:18Z</time>
					</trkpt>
					<trkpt lat="49.878700" lon="4.899720">
						<ele>272</ele>
						<time>2025-10-27T21:01:31Z</time>
					</trkpt>
					<trkpt lat="49.878250" lon="4.898890">
						<ele>269</ele>
						<time>2025-10-27T21:02:06Z</time>
					</trkpt>
					<trkpt lat="49.878180" lon="4.898680">
						<ele>267</ele>
						<time>2025-10-27T21:02:14Z</time>
					</trkpt>
					<trkpt lat="49.878090" lon="4.898300">
						<ele>262</ele>
						<time>2025-10-27T21:02:27Z</time>
					</trkpt>
					<trkpt lat="49.877760" lon="4.897200">
						<ele>249</ele>
						<time>2025-10-27T21:03:06Z</time>
					</trkpt>
					<trkpt lat="49.877480" lon="4.895970">
						<ele>235</ele>
						<time>2025-10-27T21:03:48Z</time>
					</trkpt>
					<trkpt lat="49.877450" lon="4.895810">
						<ele>233</ele>
						<time>2025-10-27T21:03:53Z</time>
					</trkpt>
					<trkpt lat="49.877380" lon="4.895440">
						<ele>228</ele>
						<time>2025-10-27T21:04:06Z</time>
					</trkpt>
					<trkpt lat="49.877250" lon="4.894880">
						<ele>221</ele>
						<time>2025-10-27T21:04:25Z</time>
					</trkpt>
					<trkpt lat="49.877150" lon="4.894470">
						<ele>216</ele>
						<time>2025-10-27T21:04:39Z</time>
					</trkpt>
					<trkpt lat="49.877120" lon="4.894060">
						<ele>210</ele>
						<time>2025-10-27T21:04:52Z</time>
					</trkpt>
					<trkpt lat="49.877090" lon="4.893240">
						<ele>201</ele>
						<time>2025-10-27T21:05:19Z</time>
					</trkpt>
					<trkpt lat="49.876900" lon="4.892780">
						<ele>197</ele>
						<time>2025-10-27T21:05:36Z</time>
					</trkpt>
					<trkpt lat="49.876780" lon="4.892590">
						<ele>195</ele>
						<time>2025-10-27T21:05:45Z</time>
					</trkpt>
					<trkpt lat="49.876680" lon="4.892310">
						<ele>192</ele>
						<time>2025-10-27T21:05:55Z</time>
					</trkpt>
					<trkpt lat="49.876680" lon="4.892140">
						<ele>191</ele>
						<time>2025-10-27T21:06:01Z</time>
					</trkpt>
					<trkpt lat="49.876720" lon="4.892020">
						<ele>190</ele>
						<time>2025-10-27T21:06:05Z</time>
					</trkpt>
					<trkpt lat="49.877110" lon="4.891260">
						<ele>188</ele>
						<time>2025-10-27T21:06:37Z</time>
					</trkpt>
					<trkpt lat="49.877100" lon="4.891020">
						<ele>186</ele>
						<time>2025-10-27T21:06:44Z</time>
					</trkpt>
					<trkpt lat="49.877000" lon="4.890840">
						<ele>184</ele>
						<time>2025-10-27T21:06:52Z</time>
					</trkpt>
					<trkpt lat="49.876880" lon="4.890830">
						<ele>184</ele>
						<time>2025-10-27T21:06:58Z</time>
					</trkpt>
					<trkpt lat="49.876730" lon="4.890930">
						<ele>183</ele>
						<time>2025-10-27T21:07:06Z</time>
					</trkpt>
					<trkpt lat="49.876640" lon="4.890970">
						<ele>183</ele>
						<time>2025-10-27T21:07:11Z</time>
					</trkpt>
					<trkpt lat="49.876540" lon="4.891070">
						<ele>182</ele>
						<time>2025-10-27T21:07:17Z</time>
					</trkpt>
					<trkpt lat="49.876330" lon="4.891560">
						<ele>183</ele>
						<time>2025-10-27T21:07:36Z</time>
					</trkpt>
					<trkpt lat="49.876180" lon="4.892020">
						<ele>183</ele>
						<time>2025-10-27T21:07:52Z</time>
					</trkpt>
					<trkpt lat="49.876150" lon="4.892270">
						<ele>184</ele>
						<time>2025-10-27T21:08:01Z</time>
					</trkpt>
					<trkpt lat="49.876160" lon="4.892990">
						<ele>187</ele>
						<time>2025-10-27T21:08:24Z</time>
					</trkpt>
					<trkpt lat="49.876160" lon="4.893150">
						<ele>188</ele>
						<time>2025-10-27T21:08:29Z</time>
					</trkpt>
					<trkpt lat="49.876100" lon="4.893540">
						<ele>190</ele>
						<time>2025-10-27T21:08:42Z</time>
					</trkpt>
					<trkpt lat="49.876000" lon="4.893910">
						<ele>190</ele>
						<time>2025-10-27T21:08:55Z</time>
					</trkpt>
					<trkpt lat="49.875830" lon="4.894240">
						<ele>187</ele>
						<time>2025-10-27T21:09:08Z</time>
					</trkpt>
					<trkpt lat="49.875770" lon="4.894540">
						<ele>191</ele>
						<time>2025-10-27T21:09:19Z</time>
					</trkpt>
					<trkpt lat="49.875640" lon="4.894760">
						<ele>192</ele>
						<time>2025-10-27T21:09:28Z</time>
					</trkpt>
					<trkpt lat="49.875510" lon="4.895080">
						<ele>194</ele>
						<time>2025-10-27T21:09:40Z</time>
					</trkpt>
					<trkpt lat="49.875260" lon="4.895530">
						<ele>195</ele>
						<time>2025-10-27T21:10:00Z</time>
					</trkpt>
					<trkpt lat="49.875080" lon="4.895730">
						<ele>193</ele>
						<time>2025-10-27T21:10:11Z</time>
					</trkpt>
					<trkpt lat="49.874830" lon="4.895870">
						<ele>190</ele>
						<time>2025-10-27T21:10:24Z</time>
					</trkpt>
					<trkpt lat="49.874650" lon="4.895940">
						<ele>188</ele>
						<time>2025-10-27T21:10:33Z</time>
					</trkpt>
					<trkpt lat="49.874570" lon="4.896140">
						<ele>190</ele>
						<time>2025-10-27T21:10:41Z</time>
					</trkpt>
					<trkpt lat="49.874510" lon="4.896190">
						<ele>190</ele>
						<time>2025-10-27T21:10:44Z</time>
					</trkpt>
					<trkpt lat="49.874340" lon="4.896150">
						<ele>185</ele>
						<time>2025-10-27T21:10:53Z</time>
					</trkpt>
					<trkpt lat="49.874270" lon="4.896210">
						<ele>185</ele>
						<time>2025-10-27T21:10:57Z</time>
					</trkpt>
					<trkpt lat="49.874240" lon="4.896280">
						<ele>185</ele>
						<time>2025-10-27T21:11:00Z</time>
					</trkpt>
					<trkpt lat="49.874160" lon="4.896280">
						<ele>183</ele>
						<time>2025-10-27T21:11:04Z</time>
					</trkpt>
					<trkpt lat="49.874110" lon="4.896250">
						<ele>183</ele>
						<time>2025-10-27T21:11:06Z</time>
					</trkpt>
					<trkpt lat="49.873790" lon="4.896160">
						<ele>180</ele>
						<time>2025-10-27T21:11:23Z</time>
					</trkpt>
					<trkpt lat="49.873620" lon="4.896090">
						<ele>179</ele>
						<time>2025-10-27T21:11:31Z</time>
					</trkpt>
					<trkpt lat="49.873360" lon="4.895920">
						<ele>178</ele>
						<time>2025-10-27T21:11:45Z</time>
					</trkpt>
					<trkpt lat="49.873290" lon="4.895810">
						<ele>178</ele>
						<time>2025-10-27T21:11:50Z</time>
					</trkpt>
					<trkpt lat="49.873220" lon="4.895630">
						<ele>178</ele>
						<time>2025-10-27T21:11:57Z</time>
					</trkpt>
					<trkpt lat="49.873090" lon="4.895590">
						<ele>178</ele>
						<time>2025-10-27T21:12:04Z</time>
					</trkpt>
					<trkpt lat="49.872840" lon="4.895450">
						<ele>178</ele>
						<time>2025-10-27T21:12:17Z</time>
					</trkpt>
					<trkpt lat="49.872770" lon="4.895310">
						<ele>178</ele>
						<time>2025-10-27T21:12:23Z</time>
					</trkpt>
					<trkpt lat="49.872690" lon="4.895190">
						<ele>178</ele>
						<time>2025-10-27T21:12:28Z</time>
					</trkpt>
					<trkpt lat="49.872620" lon="4.895100">
						<ele>178</ele>
						<time>2025-10-27T21:12:33Z</time>
					</trkpt>
					<trkpt lat="49.872590" lon="4.894960">
						<ele>178</ele>
						<time>2025-10-27T21:12:38Z</time>
					</trkpt>
					<trkpt lat="49.872570" lon="4.894880">
						<ele>179</ele>
						<time>2025-10-27T21:12:41Z</time>
					</trkpt>
					<trkpt lat="49.872290" lon="4.894570">
						<ele>180</ele>
						<time>2025-10-27T21:12:58Z</time>
					</trkpt>
					<trkpt lat="49.872080" lon="4.894360">
						<ele>179</ele>
						<time>2025-10-27T21:13:10Z</time>
					</trkpt>
					<trkpt lat="49.871940" lon="4.894200">
						<ele>178</ele>
						<time>2025-10-27T21:13:19Z</time>
					</trkpt>
					<trkpt lat="49.871810" lon="4.894030">
						<ele>179</ele>
						<time>2025-10-27T21:13:27Z</time>
					</trkpt>
					<trkpt lat="49.871600" lon="4.893680">
						<ele>181</ele>
						<time>2025-10-27T21:13:43Z</time>
					</trkpt>
					<trkpt lat="49.871370" lon="4.893420">
						<ele>182</ele>
						<time>2025-10-27T21:13:57Z</time>
					</trkpt>
					<trkpt lat="49.871300" lon="4.893370">
						<ele>182</ele>
						<time>2025-10-27T21:14:01Z</time>
					</trkpt>
					<trkpt lat="49.871280" lon="4.893390">
						<ele>181</ele>
						<time>2025-10-27T21:14:02Z</time>
					</trkpt>
					<trkpt lat="49.871200" lon="4.893620">
						<ele>179</ele>
						<time>2025-10-27T21:14:11Z</time>
					</trkpt>
					</trkseg>
				</trk>
			</gpx>